Wetterdaten: Samstag, 01.04.2023
Datum Zeit Temp. Aussen Temp. o. S. Temp +5cm Feuchte Auss Luftdruck Regen Sonnenschein Regendauer Solar Windben Empfang
01.04.2023 00:00 10,0 C 8,3 C 5,6 C 93 % 994,1 hPa 0,0 l/m 0 min 2 min 0 W/m 35,4 km/h (5 Bft) 85,11 %
01.04.2023 00:02 10,0 C 8,3 C 5,6 C 93 % 993,9 hPa 0,0 l/m 0 min 2 min 0 W/m 16,1 km/h (3 Bft) 11,11 %
01.04.2023 00:04 9,9 C 8,3 C 5,6 C 93 % 993,9 hPa 0,0 l/m 0 min 2 min 0 W/m 19,3 km/h (3 Bft) 63,64 %
01.04.2023 00:07 9,9 C 8,3 C 5,6 C 93 % 994,0 hPa 0,0 l/m 0 min 3 min 0 W/m 16,1 km/h (3 Bft) 605,36 %
01.04.2023 00:08 9,9 C 8,3 C 5,6 C 93 % 994,0 hPa 0,0 l/m 0 min 1 min 0 W/m 16,1 km/h (3 Bft) 78,26 %
01.04.2023 00:10 9,9 C 8,3 C 5,6 C 93 % 993,8 hPa 0,0 l/m 0 min 2 min 0 W/m 38,6 km/h (5 Bft) 87,23 %
01.04.2023 00:12 9,9 C 8,3 C 5,6 C 93 % 993,9 hPa 0,2 l/m 0 min 2 min 0 W/m 35,4 km/h (5 Bft) 100,00 %
01.04.2023 00:14 9,8 C 8,3 C 5,0 C 94 % 993,9 hPa 0,0 l/m 0 min 2 min 0 W/m 41,8 km/h (6 Bft) 100,00 %
01.04.2023 00:16 9,8 C 8,3 C 5,0 C 93 % 993,9 hPa 0,0 l/m 0 min 2 min 0 W/m 32,2 km/h (5 Bft) 100,00 %
01.04.2023 00:18 9,8 C 8,3 C 5,0 C 93 % 993,8 hPa 0,0 l/m 0 min 2 min 0 W/m 35,4 km/h (5 Bft) 100,00 %
01.04.2023 00:20 9,8 C 8,3 C 5,0 C 93 % 993,9 hPa 0,0 l/m 0 min 2 min 0 W/m 22,5 km/h (4 Bft) 97,87 %
01.04.2023 00:22 9,8 C 8,9 C 5,0 C 94 % 994,1 hPa 0,0 l/m 0 min 0 min 0 W/m 29,0 km/h (5 Bft) 97,87 %
01.04.2023 00:24 9,8 C 8,9 C 5,0 C 94 % 993,8 hPa 0,0 l/m 0 min 0 min 0 W/m 35,4 km/h (5 Bft) 100,00 %
01.04.2023 00:26 9,8 C 8,9 C 5,0 C 94 % 993,8 hPa 0,0 l/m 0 min 0 min 0 W/m 32,2 km/h (5 Bft) 97,87 %
01.04.2023 00:28 9,8 C 8,9 C 5,0 C 94 % 993,8 hPa 0,0 l/m 0 min 2 min 0 W/m 32,2 km/h (5 Bft) 100,00 %
01.04.2023 00:30 9,8 C 8,9 C 5,0 C 94 % 993,9 hPa 0,0 l/m 0 min 2 min 0 W/m 38,6 km/h (5 Bft) 93,48 %
01.04.2023 00:32 9,8 C 8,9 C 5,0 C 94 % 993,8 hPa 0,0 l/m 0 min 2 min 0 W/m 41,8 km/h (6 Bft) 98,00 %
01.04.2023 00:34 9,9 C 8,9 C 5,0 C 94 % 993,7 hPa 0,0 l/m 0 min 2 min 0 W/m 32,2 km/h (5 Bft) 93,62 %
01.04.2023 00:36 9,9 C 8,9 C 5,0 C 94 % 993,9 hPa 0,0 l/m 0 min 2 min 0 W/m 45,1 km/h (6 Bft) 97,87 %
01.04.2023 00:38 9,9 C 8,9 C 5,6 C 94 % 994,0 hPa 0,0 l/m 0 min 2 min 0 W/m 41,8 km/h (6 Bft) 97,87 %
01.04.2023 00:40 9,9 C 8,9 C 5,0 C 94 % 993,9 hPa 0,0 l/m 0 min 2 min 0 W/m 41,8 km/h (6 Bft) 97,87 %
01.04.2023 00:42 9,9 C 8,3 C 5,0 C 93 % 993,8 hPa 0,2 l/m 0 min 2 min 0 W/m 41,8 km/h (6 Bft) 97,87 %
01.04.2023 00:44 9,9 C 8,3 C 5,0 C 93 % 993,8 hPa 0,0 l/m 0 min 2 min 0 W/m 25,7 km/h (4 Bft) 97,83 %
01.04.2023 00:46 9,9 C 8,3 C 5,0 C 93 % 993,9 hPa 0,0 l/m 0 min 2 min 0 W/m 38,6 km/h (5 Bft) 97,87 %
01.04.2023 00:48 9,9 C 8,3 C 5,0 C 93 % 993,8 hPa 0,0 l/m 0 min 2 min 0 W/m 32,2 km/h (5 Bft) 97,87 %
01.04.2023 00:50 9,9 C 8,3 C 5,0 C 94 % 993,8 hPa 0,0 l/m 0 min 2 min 0 W/m 32,2 km/h (5 Bft) 97,87 %
01.04.2023 00:52 9,8 C 8,3 C 5,0 C 94 % 993,7 hPa 0,0 l/m 0 min 2 min 0 W/m 29,0 km/h (5 Bft) 97,87 %
01.04.2023 00:54 9,8 C 8,3 C 5,0 C 93 % 993,9 hPa 0,0 l/m 0 min 2 min 0 W/m 32,2 km/h (5 Bft) 95,74 %
01.04.2023 00:56 9,8 C 8,3 C 5,0 C 94 % 993,8 hPa 0,0 l/m 0 min 2 min 0 W/m 41,8 km/h (6 Bft) 95,74 %
01.04.2023 00:58 9,8 C 8,3 C 5,0 C 94 % 994,0 hPa 0,0 l/m 0 min 2 min 0 W/m 41,8 km/h (6 Bft) 97,83 %
01.04.2023 01:00 9,8 C 8,3 C 5,0 C 94 % 993,8 hPa 0,0 l/m 0 min 2 min 0 W/m 29,0 km/h (5 Bft) 95,74 %
01.04.2023 01:02 9,8 C 8,3 C 5,0 C 94 % 994,0 hPa 0,2 l/m 0 min 2 min 0 W/m 35,4 km/h (5 Bft) 100,00 %
01.04.2023 01:04 9,8 C 8,3 C 5,0 C 94 % 993,8 hPa 0,0 l/m 0 min 2 min 0 W/m 29,0 km/h (5 Bft) 100,00 %
01.04.2023 01:06 9,8 C 8,3 C 5,0 C 94 % 993,8 hPa 0,0 l/m 0 min 2 min 0 W/m 32,2 km/h (5 Bft) 98,46 %
01.04.2023 01:08 9,7 C 8,3 C 5,0 C 94 % 993,9 hPa 0,0 l/m 0 min 2 min 0 W/m 22,5 km/h (4 Bft) 97,22 %
01.04.2023 01:10 9,7 C 8,3 C 5,0 C 94 % 993,8 hPa 0,0 l/m 0 min 2 min 0 W/m 32,2 km/h (5 Bft) 100,00 %
01.04.2023 01:12 9,7 C 8,3 C 5,0 C 94 % 993,8 hPa 0,2 l/m 0 min 2 min 0 W/m 35,4 km/h (5 Bft) 100,00 %
01.04.2023 01:14 9,7 C 8,3 C 5,0 C 94 % 993,8 hPa 0,0 l/m 0 min 2 min 0 W/m 38,6 km/h (5 Bft) 97,87 %
01.04.2023 01:16 9,7 C 8,3 C 5,0 C 94 % 993,8 hPa 0,0 l/m 0 min 0 min 0 W/m 25,7 km/h (4 Bft) 97,87 %
01.04.2023 01:18 9,7 C 8,3 C 5,0 C 94 % 993,8 hPa 0,0 l/m 0 min 2 min 0 W/m 48,3 km/h (6 Bft) 97,87 %
01.04.2023 01:20 9,7 C 8,3 C 5,0 C 95 % 993,7 hPa 0,0 l/m 0 min 2 min 0 W/m 38,6 km/h (5 Bft) 97,87 %
01.04.2023 01:22 9,7 C 8,3 C 5,0 C 94 % 993,9 hPa 0,0 l/m 0 min 2 min 0 W/m 38,6 km/h (5 Bft) 95,65 %
01.04.2023 01:24 9,7 C 8,3 C 5,0 C 94 % 993,9 hPa 0,0 l/m 0 min 0 min 0 W/m 38,6 km/h (5 Bft) 97,87 %
01.04.2023 01:26 9,7 C 8,3 C 5,0 C 95 % 993,7 hPa 0,0 l/m 0 min 0 min 0 W/m 25,7 km/h (4 Bft) 97,87 %
01.04.2023 01:28 9,7 C 8,3 C 5,0 C 95 % 993,8 hPa 0,0 l/m 0 min 2 min 0 W/m 51,5 km/h (7 Bft) 97,87 %
01.04.2023 01:30 9,7 C 8,3 C 5,0 C 95 % 993,8 hPa 0,0 l/m 0 min 0 min 0 W/m 32,2 km/h (5 Bft) 95,74 %
01.04.2023 01:32 9,7 C 8,3 C 5,6 C 95 % 993,7 hPa 0,0 l/m 0 min 0 min 0 W/m 25,7 km/h (4 Bft) 95,74 %
01.04.2023 01:34 9,7 C 8,3 C 5,6 C 95 % 993,7 hPa 0,0 l/m 0 min 0 min 0 W/m 32,2 km/h (5 Bft) 95,74 %
01.04.2023 01:36 9,7 C 8,3 C 5,6 C 95 % 993,8 hPa 0,0 l/m 0 min 2 min 0 W/m 32,2 km/h (5 Bft) 91,30 %
01.04.2023 01:38 9,7 C 8,3 C 5,6 C 95 % 993,8 hPa 0,0 l/m 0 min 2 min 0 W/m 38,6 km/h (5 Bft) 97,87 %
01.04.2023 01:40 9,7 C 8,3 C 5,6 C 95 % 993,7 hPa 0,0 l/m 0 min 2 min 0 W/m 35,4 km/h (5 Bft) 97,87 %
01.04.2023 01:42 9,7 C 8,3 C 5,6 C 95 % 993,8 hPa 0,0 l/m 0 min 2 min 0 W/m 38,6 km/h (5 Bft) 91,49 %
01.04.2023 01:44 9,7 C 8,3 C 5,6 C 95 % 993,9 hPa 0,0 l/m 0 min 2 min 0 W/m 25,7 km/h (4 Bft) 94,74 %
01.04.2023 01:46 9,7 C 8,3 C 5,6 C 95 % 993,7 hPa 0,0 l/m 0 min 2 min 0 W/m 45,1 km/h (6 Bft) 97,83 %
01.04.2023 01:48 9,7 C 8,3 C 5,6 C 95 % 993,7 hPa 0,0 l/m 0 min 2 min 0 W/m 22,5 km/h (4 Bft) 95,74 %
01.04.2023 01:50 9,7 C 8,3 C 5,6 C 95 % 993,7 hPa 0,0 l/m 0 min 2 min 0 W/m 29,0 km/h (5 Bft) 97,87 %
01.04.2023 01:52 9,8 C 8,3 C 5,6 C 95 % 993,7 hPa 0,0 l/m 0 min 2 min 0 W/m 35,4 km/h (5 Bft) 97,87 %
01.04.2023 01:54 9,8 C 8,3 C 5,6 C 94 % 993,7 hPa 0,0 l/m 0 min 2 min 0 W/m 29,0 km/h (5 Bft) 95,74 %
01.04.2023 01:56 9,8 C 8,3 C 5,6 C 94 % 993,6 hPa 0,0 l/m 0 min 2 min 0 W/m 32,2 km/h (5 Bft) 95,74 %
01.04.2023 01:58 9,8 C 8,3 C 5,6 C 94 % 993,6 hPa 0,0 l/m 0 min 2 min 0 W/m 38,6 km/h (5 Bft) 97,62 %
01.04.2023 02:00 9,8 C 8,3 C 5,6 C 94 % 993,9 hPa 0,0 l/m 0 min 2 min 0 W/m 45,1 km/h (6 Bft) 95,65 %
01.04.2023 02:02 9,8 C 8,3 C 5,6 C 94 % 993,7 hPa 0,0 l/m 0 min 2 min 0 W/m 38,6 km/h (5 Bft) 96,43 %
01.04.2023 02:04 9,8 C 8,3 C 5,6 C 94 % 993,7 hPa 0,0 l/m 0 min 2 min 0 W/m 41,8 km/h (6 Bft) 95,12 %
01.04.2023 02:06 9,8 C 8,3 C 5,6 C 94 % 993,6 hPa 0,0 l/m 0 min 2 min 0 W/m 35,4 km/h (5 Bft) 93,62 %
01.04.2023 02:08 9,8 C 8,3 C 5,6 C 94 % 993,7 hPa 0,0 l/m 0 min 2 min 0 W/m 22,5 km/h (4 Bft) 97,87 %
01.04.2023 02:10 9,8 C 8,3 C 5,6 C 94 % 993,7 hPa 0,0 l/m 0 min 2 min 0 W/m 32,2 km/h (5 Bft) 97,87 %
01.04.2023 02:14 9,7 C 8,3 C 5,6 C 94 % 993,7 hPa 0,2 l/m 0 min 4 min 0 W/m 35,4 km/h (5 Bft) 100,00 %
01.04.2023 02:16 9,7 C 8,3 C 5,6 C 94 % 993,6 hPa 0,0 l/m 0 min 2 min 0 W/m 41,8 km/h (6 Bft) 97,87 %
01.04.2023 02:18 9,7 C 8,3 C 5,6 C 94 % 993,5 hPa 0,0 l/m 0 min 2 min 0 W/m 38,6 km/h (5 Bft) 95,92 %
01.04.2023 02:20 9,7 C 8,3 C 5,6 C 94 % 993,6 hPa 0,0 l/m 0 min 2 min 0 W/m 48,3 km/h (6 Bft) 95,74 %
01.04.2023 02:22 9,7 C 8,3 C 5,6 C 94 % 993,6 hPa 0,0 l/m 0 min 2 min 0 W/m 22,5 km/h (4 Bft) 100,00 %
01.04.2023 02:24 9,7 C 8,3 C 5,6 C 94 % 993,6 hPa 0,0 l/m 0 min 2 min 0 W/m 32,2 km/h (5 Bft) 91,49 %
01.04.2023 02:26 9,6 C 8,3 C 5,6 C 94 % 993,6 hPa 0,0 l/m 0 min 2 min 0 W/m 38,6 km/h (5 Bft) 96,23 %
01.04.2023 02:28 9,6 C 8,3 C 5,6 C 95 % 993,5 hPa 0,0 l/m 0 min 2 min 0 W/m 22,5 km/h (4 Bft) 96,00 %
01.04.2023 02:30 9,6 C 8,3 C 5,6 C 95 % 993,6 hPa 0,0 l/m 0 min 2 min 0 W/m 29,0 km/h (5 Bft) 89,47 %
01.04.2023 02:32 9,6 C 8,3 C 5,6 C 95 % 993,6 hPa 0,0 l/m 0 min 2 min 0 W/m 29,0 km/h (5 Bft) 93,75 %
01.04.2023 02:34 9,6 C 8,3 C 5,0 C 95 % 993,8 hPa 0,0 l/m 0 min 2 min 0 W/m 35,4 km/h (5 Bft) 97,87 %
01.04.2023 02:36 9,6 C 8,3 C 5,6 C 95 % 993,7 hPa 0,0 l/m 0 min 0 min 0 W/m 29,0 km/h (5 Bft) 92,59 %
01.04.2023 02:38 9,6 C 8,3 C 5,6 C 95 % 993,6 hPa 0,0 l/m 0 min 2 min 0 W/m 35,4 km/h (5 Bft) 95,74 %
01.04.2023 02:40 9,6 C 8,3 C 5,6 C 95 % 993,6 hPa 0,0 l/m 0 min 2 min 0 W/m 32,2 km/h (5 Bft) 95,74 %
01.04.2023 02:42 9,6 C 8,3 C 5,6 C 95 % 993,5 hPa 0,0 l/m 0 min 2 min 0 W/m 35,4 km/h (5 Bft) 88,89 %
01.04.2023 02:44 9,6 C 8,3 C 5,6 C 95 % 993,5 hPa 0,0 l/m 0 min 2 min 0 W/m 38,6 km/h (5 Bft) 96,00 %
01.04.2023 02:46 9,6 C 8,3 C 5,6 C 95 % 993,7 hPa 0,0 l/m 0 min 2 min 0 W/m 29,0 km/h (5 Bft) 93,62 %
01.04.2023 02:48 9,6 C 8,3 C 5,6 C 95 % 993,6 hPa 0,0 l/m 0 min 0 min 0 W/m 32,2 km/h (5 Bft) 95,74 %
01.04.2023 02:50 9,6 C 8,3 C 5,6 C 95 % 993,6 hPa 0,0 l/m 0 min 0 min 0 W/m 25,7 km/h (4 Bft) 93,62 %
01.04.2023 02:52 9,6 C 8,3 C 5,6 C 95 % 993,7 hPa 0,0 l/m 0 min 0 min 0 W/m 35,4 km/h (5 Bft) 97,87 %
01.04.2023 02:54 9,6 C 8,3 C 5,6 C 95 % 993,6 hPa 0,0 l/m 0 min 2 min 0 W/m 22,5 km/h (4 Bft) 100,00 %
01.04.2023 02:56 9,6 C 8,3 C 5,6 C 95 % 993,6 hPa 0,0 l/m 0 min 2 min 0 W/m 25,7 km/h (4 Bft) 100,00 %
01.04.2023 02:58 9,6 C 8,3 C 5,6 C 95 % 993,6 hPa 0,0 l/m 0 min 2 min 0 W/m 19,3 km/h (3 Bft) 97,87 %
01.04.2023 03:00 9,6 C 8,3 C 5,6 C 95 % 993,6 hPa 0,0 l/m 0 min 2 min 0 W/m 22,5 km/h (4 Bft) 100,00 %
01.04.2023 03:02 9,6 C 8,3 C 5,6 C 95 % 993,6 hPa 0,0 l/m 0 min 2 min 0 W/m 22,5 km/h (4 Bft) 95,74 %
01.04.2023 03:04 9,5 C 8,3 C 5,6 C 95 % 993,6 hPa 0,0 l/m 0 min 2 min 0 W/m 29,0 km/h (5 Bft) 100,00 %
01.04.2023 03:06 9,5 C 8,3 C 5,6 C 95 % 993,6 hPa 0,2 l/m 0 min 2 min 0 W/m 22,5 km/h (4 Bft) 97,87 %
01.04.2023 03:08 9,5 C 8,3 C 5,6 C 95 % 993,6 hPa 0,0 l/m 0 min 2 min 0 W/m 22,5 km/h (4 Bft) 100,00 %
01.04.2023 03:10 9,5 C 8,3 C 5,6 C 95 % 993,4 hPa 0,0 l/m 0 min 2 min 0 W/m 32,2 km/h (5 Bft) 97,83 %
01.04.2023 03:12 9,5 C 8,3 C 5,6 C 95 % 993,5 hPa 0,0 l/m 0 min 2 min 0 W/m 22,5 km/h (4 Bft) 100,00 %
01.04.2023 03:14 9,5 C 8,3 C 5,6 C 95 % 993,5 hPa 0,0 l/m 0 min 2 min 0 W/m 25,7 km/h (4 Bft) 100,00 %
01.04.2023 03:16 9,5 C 8,3 C 5,6 C 95 % 993,5 hPa 0,0 l/m 0 min 2 min 0 W/m 16,1 km/h (3 Bft) 100,00 %
01.04.2023 03:18 9,5 C 8,3 C 5,6 C 95 % 993,5 hPa 0,0 l/m 0 min 2 min 0 W/m 32,2 km/h (5 Bft) 100,00 %
01.04.2023 03:20 9,5 C 8,3 C 5,0 C 95 % 993,5 hPa 0,0 l/m 0 min 2 min 0 W/m 22,5 km/h (4 Bft) 100,00 %
01.04.2023 03:22 9,5 C 8,3 C 5,0 C 95 % 993,3 hPa 0,0 l/m 0 min 2 min 0 W/m 32,2 km/h (5 Bft) 95,65 %
01.04.2023 03:24 9,5 C 8,3 C 5,0 C 95 % 993,6 hPa 0,0 l/m 0 min 2 min 0 W/m 41,8 km/h (6 Bft) 100,00 %
01.04.2023 03:26 9,6 C 8,3 C 5,0 C 95 % 993,4 hPa 0,0 l/m 0 min 2 min 0 W/m 25,7 km/h (4 Bft) 100,00 %
01.04.2023 03:28 9,5 C 8,3 C 5,0 C 95 % 993,4 hPa 0,0 l/m 0 min 2 min 0 W/m 25,7 km/h (4 Bft) 100,00 %
01.04.2023 03:30 9,5 C 8,3 C 5,0 C 95 % 993,4 hPa 0,0 l/m 0 min 2 min 0 W/m 38,6 km/h (5 Bft) 97,87 %
01.04.2023 03:32 9,6 C 8,3 C 5,0 C 95 % 993,5 hPa 0,0 l/m 0 min 2 min 0 W/m 32,2 km/h (5 Bft) 95,74 %
01.04.2023 03:34 9,6 C 8,3 C 5,0 C 95 % 993,5 hPa 0,0 l/m 0 min 2 min 0 W/m 25,7 km/h (4 Bft) 91,49 %
01.04.2023 03:36 9,6 C 8,3 C 5,0 C 95 % 993,4 hPa 0,0 l/m 0 min 2 min 0 W/m 41,8 km/h (6 Bft) 97,83 %
01.04.2023 03:38 9,6 C 8,3 C 5,0 C 95 % 993,4 hPa 0,0 l/m 0 min 2 min 0 W/m 29,0 km/h (5 Bft) 97,87 %
01.04.2023 03:40 9,6 C 8,3 C 5,6 C 95 % 993,5 hPa 0,0 l/m 0 min 2 min 0 W/m 29,0 km/h (5 Bft) 95,74 %
01.04.2023 03:42 9,6 C 8,3 C 5,0 C 95 % 993,5 hPa 0,0 l/m 0 min 2 min 0 W/m 29,0 km/h (5 Bft) 95,74 %
01.04.2023 03:44 9,6 C 8,3 C 5,0 C 95 % 993,4 hPa 0,0 l/m 0 min 2 min 0 W/m 19,3 km/h (3 Bft) 97,87 %
01.04.2023 03:46 9,6 C 8,3 C 5,0 C 95 % 993,4 hPa 0,2 l/m 0 min 2 min 0 W/m 29,0 km/h (5 Bft) 98,00 %
01.04.2023 03:48 9,6 C 8,3 C 5,0 C 95 % 993,4 hPa 0,0 l/m 0 min 2 min 0 W/m 25,7 km/h (4 Bft) 94,29 %
01.04.2023 03:50 9,6 C 8,3 C 5,6 C 95 % 993,4 hPa 0,0 l/m 0 min 2 min 0 W/m 25,7 km/h (4 Bft) 97,87 %
01.04.2023 03:52 9,6 C 8,3 C 5,0 C 95 % 993,4 hPa 0,0 l/m 0 min 2 min 0 W/m 41,8 km/h (6 Bft) 97,83 %
01.04.2023 03:54 9,6 C 8,3 C 5,0 C 95 % 993,5 hPa 0,0 l/m 0 min 2 min 0 W/m 32,2 km/h (5 Bft) 95,74 %
01.04.2023 03:56 9,6 C 8,3 C 5,0 C 95 % 993,3 hPa 0,0 l/m 0 min 2 min 0 W/m 29,0 km/h (5 Bft) 95,74 %
01.04.2023 03:58 9,6 C 8,3 C 5,0 C 95 % 993,4 hPa 0,0 l/m 0 min 2 min 0 W/m 35,4 km/h (5 Bft) 97,87 %
01.04.2023 04:00 9,6 C 8,3 C 5,0 C 95 % 993,4 hPa 0,0 l/m 0 min 2 min 0 W/m 29,0 km/h (5 Bft) 97,87 %
01.04.2023 04:02 9,6 C 8,3 C 5,6 C 95 % 993,3 hPa 0,0 l/m 0 min 2 min 0 W/m 25,7 km/h (4 Bft) 97,87 %
01.04.2023 04:04 9,6 C 8,3 C 5,6 C 95 % 993,5 hPa 0,2 l/m 0 min 2 min 0 W/m 22,5 km/h (4 Bft) 93,62 %
01.04.2023 04:06 9,5 C 8,3 C 5,6 C 95 % 993,3 hPa 0,0 l/m 0 min 2 min 0 W/m 32,2 km/h (5 Bft) 96,55 %
01.04.2023 04:08 9,5 C 8,3 C 5,6 C 95 % 993,4 hPa 0,0 l/m 0 min 2 min 0 W/m 22,5 km/h (4 Bft) 91,43 %
01.04.2023 04:10 9,5 C 8,3 C 5,0 C 95 % 993,4 hPa 0,0 l/m 0 min 2 min 0 W/m 41,8 km/h (6 Bft) 91,49 %
01.04.2023 04:12 9,5 C 8,3 C 5,6 C 95 % 993,4 hPa 0,0 l/m 0 min 2 min 0 W/m 54,7 km/h (7 Bft) 95,74 %
01.04.2023 04:14 9,5 C 8,3 C 5,0 C 95 % 993,6 hPa 0,0 l/m 0 min 2 min 0 W/m 32,2 km/h (5 Bft) 97,87 %
01.04.2023 04:16 9,5 C 8,3 C 5,6 C 95 % 993,4 hPa 0,0 l/m 0 min 2 min 0 W/m 16,1 km/h (3 Bft) 95,74 %
01.04.2023 04:18 9,4 C 8,3 C 5,6 C 95 % 993,5 hPa 0,2 l/m 0 min 2 min 0 W/m 19,3 km/h (3 Bft) 91,49 %
01.04.2023 04:20 9,4 C 8,3 C 5,6 C 95 % 993,4 hPa 0,0 l/m 0 min 2 min 0 W/m 29,0 km/h (5 Bft) 95,65 %
01.04.2023 04:22 9,4 C 8,3 C 5,6 C 95 % 993,4 hPa 0,0 l/m 0 min 2 min 0 W/m 25,7 km/h (4 Bft) 92,73 %
01.04.2023 04:24 9,4 C 8,3 C 5,6 C 95 % 993,3 hPa 0,0 l/m 0 min 2 min 0 W/m 29,0 km/h (5 Bft) 95,74 %
01.04.2023 04:26 9,4 C 8,3 C 5,0 C 95 % 993,4 hPa 0,0 l/m 0 min 0 min 0 W/m 51,5 km/h (7 Bft) 95,74 %
01.04.2023 04:28 9,4 C 8,3 C 5,6 C 95 % 993,4 hPa 0,0 l/m 0 min 2 min 0 W/m 35,4 km/h (5 Bft) 95,74 %
01.04.2023 04:30 9,4 C 8,3 C 5,6 C 95 % 993,4 hPa 0,0 l/m 0 min 0 min 0 W/m 29,0 km/h (5 Bft) 97,87 %
01.04.2023 04:32 9,4 C 8,3 C 5,6 C 95 % 993,4 hPa 0,0 l/m 0 min 0 min 0 W/m 22,5 km/h (4 Bft) 95,83 %
01.04.2023 04:34 9,4 C 8,3 C 5,6 C 95 % 993,4 hPa 0,0 l/m 0 min 2 min 0 W/m 32,2 km/h (5 Bft) 97,92 %
01.04.2023 04:36 9,4 C 8,3 C 5,6 C 95 % 993,5 hPa 0,0 l/m 0 min 2 min 0 W/m 35,4 km/h (5 Bft) 95,74 %
01.04.2023 04:38 9,4 C 8,3 C 5,6 C 95 % 993,5 hPa 0,0 l/m 0 min 2 min 0 W/m 19,3 km/h (3 Bft) 97,92 %
01.04.2023 04:40 9,4 C 8,3 C 5,6 C 95 % 993,5 hPa 0,0 l/m 0 min 2 min 0 W/m 29,0 km/h (5 Bft) 97,87 %
01.04.2023 04:42 9,4 C 8,3 C 5,6 C 95 % 993,6 hPa 0,0 l/m 0 min 2 min 0 W/m 32,2 km/h (5 Bft) 95,65 %
01.04.2023 04:44 9,3 C 8,3 C 5,6 C 95 % 993,6 hPa 0,0 l/m 0 min 2 min 0 W/m 35,4 km/h (5 Bft) 95,74 %
01.04.2023 04:46 9,3 C 8,3 C 5,6 C 96 % 993,6 hPa 0,0 l/m 0 min 2 min 0 W/m 25,7 km/h (4 Bft) 95,74 %
01.04.2023 04:48 9,3 C 8,3 C 5,6 C 96 % 993,7 hPa 0,0 l/m 0 min 2 min 0 W/m 25,7 km/h (4 Bft) 97,87 %
01.04.2023 04:50 9,3 C 8,3 C 5,6 C 96 % 993,6 hPa 0,0 l/m 0 min 2 min 0 W/m 32,2 km/h (5 Bft) 97,87 %
01.04.2023 04:52 9,3 C 8,3 C 5,6 C 96 % 993,7 hPa 0,0 l/m 0 min 2 min 0 W/m 25,7 km/h (4 Bft) 97,87 %
01.04.2023 04:54 9,3 C 8,3 C 5,6 C 96 % 993,7 hPa 0,0 l/m 0 min 2 min 0 W/m 41,8 km/h (6 Bft) 100,00 %
01.04.2023 04:56 9,3 C 8,3 C 5,6 C 96 % 993,8 hPa 0,0 l/m 0 min 2 min 0 W/m 38,6 km/h (5 Bft) 97,87 %
01.04.2023 04:58 9,3 C 8,3 C 5,6 C 96 % 993,7 hPa 0,0 l/m 0 min 2 min 0 W/m 22,5 km/h (4 Bft) 97,83 %
01.04.2023 05:00 9,3 C 8,3 C 5,6 C 96 % 993,7 hPa 0,0 l/m 0 min 2 min 0 W/m 16,1 km/h (3 Bft) 95,74 %
01.04.2023 05:02 9,3 C 8,3 C 5,6 C 96 % 993,6 hPa 0,0 l/m 0 min 2 min 0 W/m 16,1 km/h (3 Bft) 95,74 %
01.04.2023 05:04 9,3 C 8,3 C 5,6 C 96 % 993,7 hPa 0,0 l/m 0 min 2 min 0 W/m 45,1 km/h (6 Bft) 97,87 %
01.04.2023 05:06 9,3 C 8,3 C 5,6 C 96 % 993,6 hPa 0,0 l/m 0 min 2 min 0 W/m 22,5 km/h (4 Bft) 97,87 %
01.04.2023 05:08 9,3 C 8,3 C 5,6 C 96 % 993,7 hPa 0,0 l/m 0 min 2 min 0 W/m 19,3 km/h (3 Bft) 95,74 %
01.04.2023 05:10 9,3 C 8,3 C 5,6 C 96 % 993,7 hPa 0,0 l/m 0 min 2 min 0 W/m 16,1 km/h (3 Bft) 97,83 %
01.04.2023 05:12 9,3 C 8,3 C 5,6 C 96 % 993,7 hPa 0,0 l/m 0 min 2 min 0 W/m 16,1 km/h (3 Bft) 97,87 %
01.04.2023 05:14 9,3 C 8,3 C 5,6 C 96 % 993,8 hPa 0,2 l/m 0 min 0 min 0 W/m 22,5 km/h (4 Bft) 95,74 %
01.04.2023 05:16 9,2 C 8,3 C 5,6 C 96 % 993,7 hPa 0,0 l/m 0 min 0 min 0 W/m 25,7 km/h (4 Bft) 100,00 %
01.04.2023 05:18 9,2 C 8,3 C 5,6 C 96 % 993,7 hPa 0,0 l/m 0 min 0 min 0 W/m 22,5 km/h (4 Bft) 96,36 %
01.04.2023 05:20 9,2 C 8,3 C 5,6 C 96 % 993,9 hPa 0,0 l/m 0 min 0 min 0 W/m 32,2 km/h (5 Bft) 97,87 %
01.04.2023 05:22 9,2 C 8,3 C 5,6 C 96 % 993,8 hPa 0,0 l/m 0 min 0 min 0 W/m 19,3 km/h (3 Bft) 95,74 %
01.04.2023 05:24 9,2 C 8,3 C 5,6 C 96 % 993,9 hPa 0,0 l/m 0 min 2 min 0 W/m 25,7 km/h (4 Bft) 93,62 %
01.04.2023 05:26 9,2 C 8,3 C 5,6 C 96 % 993,9 hPa 0,0 l/m 0 min 2 min 0 W/m 22,5 km/h (4 Bft) 97,87 %
01.04.2023 05:28 9,2 C 8,3 C 5,6 C 96 % 993,8 hPa 0,0 l/m 0 min 2 min 0 W/m 29,0 km/h (5 Bft) 95,65 %
01.04.2023 05:30 9,2 C 8,3 C 5,6 C 96 % 993,9 hPa 0,0 l/m 0 min 2 min 0 W/m 19,3 km/h (3 Bft) 97,87 %
01.04.2023 05:32 9,2 C 8,3 C 5,6 C 96 % 993,8 hPa 0,0 l/m 0 min 2 min 0 W/m 41,8 km/h (6 Bft) 95,74 %
01.04.2023 05:34 9,2 C 8,3 C 5,6 C 96 % 993,9 hPa 0,0 l/m 0 min 2 min 0 W/m 29,0 km/h (5 Bft) 97,87 %
01.04.2023 05:36 9,2 C 8,3 C 5,6 C 97 % 993,9 hPa 0,0 l/m 0 min 2 min 0 W/m 32,2 km/h (5 Bft) 94,12 %
01.04.2023 05:38 9,2 C 8,3 C 5,6 C 97 % 993,9 hPa 0,0 l/m 0 min 2 min 0 W/m 29,0 km/h (5 Bft) 94,29 %
01.04.2023 05:40 9,2 C 8,3 C 5,6 C 97 % 994,0 hPa 0,0 l/m 0 min 2 min 0 W/m 29,0 km/h (5 Bft) 95,65 %
01.04.2023 05:42 9,2 C 8,3 C 5,6 C 97 % 993,9 hPa 0,0 l/m 0 min 2 min 0 W/m 25,7 km/h (4 Bft) 97,87 %
01.04.2023 05:44 9,2 C 8,3 C 5,6 C 97 % 993,8 hPa 0,0 l/m 0 min 2 min 0 W/m 22,5 km/h (4 Bft) 97,87 %
01.04.2023 05:46 9,2 C 8,3 C 5,6 C 97 % 993,9 hPa 0,0 l/m 0 min 2 min 0 W/m 35,4 km/h (5 Bft) 97,87 %
01.04.2023 05:48 9,2 C 8,3 C 5,6 C 97 % 993,9 hPa 0,0 l/m 0 min 2 min 0 W/m 29,0 km/h (5 Bft) 95,74 %
01.04.2023 05:50 9,2 C 8,3 C 5,6 C 97 % 993,9 hPa 0,0 l/m 0 min 2 min 0 W/m 32,2 km/h (5 Bft) 100,00 %
01.04.2023 05:52 9,2 C 8,3 C 5,6 C 97 % 994,0 hPa 0,0 l/m 0 min 2 min 0 W/m 25,7 km/h (4 Bft) 97,87 %
01.04.2023 05:54 9,2 C 8,3 C 5,6 C 97 % 993,9 hPa 0,0 l/m 0 min 2 min 0 W/m 29,0 km/h (5 Bft) 100,00 %
01.04.2023 05:56 9,3 C 8,3 C 5,6 C 97 % 994,0 hPa 0,0 l/m 0 min 2 min 0 W/m 19,3 km/h (3 Bft) 97,87 %
01.04.2023 05:58 9,3 C 8,3 C 5,6 C 97 % 994,0 hPa 0,0 l/m 0 min 2 min 0 W/m 35,4 km/h (5 Bft) 100,00 %
01.04.2023 06:00 9,3 C 8,3 C 5,6 C 97 % 994,0 hPa 0,0 l/m 0 min 2 min 0 W/m 38,6 km/h (5 Bft) 97,87 %
01.04.2023 06:02 9,2 C 8,3 C 5,6 C 97 % 994,0 hPa 0,0 l/m 0 min 2 min 0 W/m 22,5 km/h (4 Bft) 97,87 %
01.04.2023 06:04 9,3 C 8,3 C 5,6 C 97 % 993,9 hPa 0,0 l/m 0 min 2 min 0 W/m 22,5 km/h (4 Bft) 95,74 %
01.04.2023 06:07 9,3 C 8,3 C 5,6 C 97 % 993,9 hPa 0,0 l/m 0 min 3 min 0 W/m 32,2 km/h (5 Bft) 90,41 %
01.04.2023 06:08 9,3 C 8,3 C 5,6 C 97 % 993,9 hPa 0,0 l/m 0 min 1 min 0 W/m 16,1 km/h (3 Bft) 86,96 %
01.04.2023 06:12 9,3 C 8,3 C 5,6 C 97 % 994,0 hPa 0,0 l/m 0 min 4 min 0 W/m 22,5 km/h (4 Bft) 89,80 %
01.04.2023 06:14 9,3 C 8,3 C 5,6 C 97 % 994,0 hPa 0,0 l/m 0 min 2 min 0 W/m 19,3 km/h (3 Bft) 89,36 %
01.04.2023 06:16 9,3 C 8,3 C 5,6 C 97 % 994,1 hPa 0,2 l/m 0 min 2 min 0 W/m 25,7 km/h (4 Bft) 95,74 %
01.04.2023 06:18 9,3 C 8,3 C 5,6 C 97 % 994,0 hPa 0,0 l/m 0 min 2 min 0 W/m 19,3 km/h (3 Bft) 95,74 %
01.04.2023 06:20 9,3 C 8,3 C 5,6 C 97 % 994,0 hPa 0,0 l/m 0 min 2 min 0 W/m 22,5 km/h (4 Bft) 91,30 %
01.04.2023 06:22 9,3 C 8,3 C 5,6 C 97 % 994,0 hPa 0,0 l/m 0 min 2 min 0 W/m 25,7 km/h (4 Bft) 93,62 %
01.04.2023 06:24 9,3 C 8,3 C 5,6 C 97 % 994,0 hPa 0,0 l/m 0 min 2 min 0 W/m 16,1 km/h (3 Bft) 91,49 %
01.04.2023 06:26 9,3 C 8,3 C 5,6 C 97 % 994,1 hPa 0,0 l/m 0 min 2 min 0 W/m 19,3 km/h (3 Bft) 93,62 %
01.04.2023 06:28 9,3 C 8,3 C 5,6 C 97 % 994,1 hPa 0,0 l/m 0 min 2 min 0 W/m 16,1 km/h (3 Bft) 95,74 %
01.04.2023 06:30 9,3 C 8,3 C 5,6 C 97 % 994,1 hPa 0,0 l/m 0 min 2 min 0 W/m 22,5 km/h (4 Bft) 95,74 %
01.04.2023 06:32 9,3 C 8,3 C 5,6 C 97 % 994,1 hPa 0,0 l/m 0 min 2 min 0 W/m 22,5 km/h (4 Bft) 93,62 %
01.04.2023 06:34 9,3 C 8,3 C 5,6 C 97 % 994,1 hPa 0,0 l/m 0 min 2 min 0 W/m 22,5 km/h (4 Bft) 93,48 %
01.04.2023 06:36 9,3 C 8,3 C 5,6 C 97 % 994,1 hPa 0,2 l/m 0 min 2 min 0 W/m 12,9 km/h (3 Bft) 95,74 %
01.04.2023 06:38 9,3 C 8,3 C 5,6 C 97 % 994,1 hPa 0,0 l/m 0 min 2 min 0 W/m 16,1 km/h (3 Bft) 95,74 %
01.04.2023 06:40 9,3 C 8,3 C 5,6 C 97 % 994,2 hPa 0,0 l/m 0 min 2 min 0 W/m 12,9 km/h (3 Bft) 95,74 %
01.04.2023 06:42 9,3 C 8,3 C 5,6 C 97 % 994,1 hPa 0,0 l/m 0 min 2 min 0 W/m 19,3 km/h (3 Bft) 97,87 %
01.04.2023 06:44 9,3 C 8,3 C 5,6 C 97 % 994,1 hPa 0,0 l/m 0 min 2 min 0 W/m 19,3 km/h (3 Bft) 97,87 %
01.04.2023 06:46 9,2 C 8,3 C 5,6 C 97 % 994,2 hPa 0,0 l/m 0 min 2 min 0 W/m 32,2 km/h (5 Bft) 96,00 %
01.04.2023 06:48 9,2 C 8,3 C 5,6 C 97 % 994,1 hPa 0,0 l/m 0 min 2 min 0 W/m 25,7 km/h (4 Bft) 97,83 %
01.04.2023 06:50 9,2 C 8,3 C 5,6 C 97 % 994,2 hPa 0,2 l/m 0 min 2 min 0 W/m 32,2 km/h (5 Bft) 97,87 %
01.04.2023 06:52 9,2 C 8,3 C 5,6 C 97 % 994,1 hPa 0,0 l/m 0 min 2 min 0 W/m 12,9 km/h (3 Bft) 97,87 %
01.04.2023 06:54 9,2 C 8,3 C 5,6 C 97 % 994,2 hPa 0,0 l/m 0 min 2 min 0 W/m 16,1 km/h (3 Bft) 97,87 %
01.04.2023 06:56 9,2 C 8,3 C 5,6 C 97 % 994,2 hPa 0,0 l/m 0 min 2 min 0 W/m 12,9 km/h (3 Bft) 97,87 %
01.04.2023 06:58 9,2 C 8,3 C 5,6 C 97 % 994,2 hPa 0,0 l/m 0 min 2 min 0 W/m 22,5 km/h (4 Bft) 97,87 %
01.04.2023 07:00 9,2 C 8,3 C 5,6 C 97 % 994,2 hPa 0,0 l/m 0 min 2 min 0 W/m 12,9 km/h (3 Bft) 95,65 %
01.04.2023 07:02 9,2 C 8,3 C 5,6 C 97 % 994,2 hPa 0,0 l/m 0 min 2 min 0 W/m 12,9 km/h (3 Bft) 97,87 %
01.04.2023 07:04 9,2 C 8,3 C 5,6 C 97 % 994,3 hPa 0,0 l/m 0 min 2 min 0 W/m 12,9 km/h (3 Bft) 100,00 %
01.04.2023 07:06 9,2 C 8,3 C 5,6 C 97 % 994,2 hPa 0,0 l/m 0 min 2 min 0 W/m 16,1 km/h (3 Bft) 100,00 %
01.04.2023 07:08 9,2 C 8,3 C 5,6 C 97 % 994,3 hPa 0,0 l/m 0 min 2 min 0 W/m 32,2 km/h (5 Bft) 100,00 %
01.04.2023 07:10 9,2 C 8,3 C 5,6 C 97 % 994,3 hPa 0,0 l/m 0 min 2 min 0 W/m 19,3 km/h (3 Bft) 100,00 %
01.04.2023 07:12 9,2 C 8,3 C 5,6 C 97 % 994,3 hPa 0,0 l/m 0 min 2 min 0 W/m 19,3 km/h (3 Bft) 100,00 %
01.04.2023 07:14 9,2 C 8,3 C 5,6 C 97 % 994,3 hPa 0,0 l/m 0 min 2 min 0 W/m 16,1 km/h (3 Bft) 100,00 %
01.04.2023 07:16 9,2 C 8,3 C 5,6 C 97 % 994,3 hPa 0,0 l/m 0 min 2 min 0 W/m 29,0 km/h (5 Bft) 100,00 %
01.04.2023 07:18 9,2 C 8,3 C 5,6 C 97 % 994,4 hPa 0,0 l/m 0 min 0 min 0 W/m 22,5 km/h (4 Bft) 100,00 %
01.04.2023 07:20 9,2 C 8,3 C 5,6 C 97 % 994,3 hPa 0,0 l/m 0 min 0 min 0 W/m 19,3 km/h (3 Bft) 97,87 %
01.04.2023 07:22 9,2 C 8,3 C 5,6 C 97 % 994,4 hPa 0,0 l/m 0 min 2 min 0 W/m 19,3 km/h (3 Bft) 100,00 %
01.04.2023 07:24 9,2 C 8,3 C 5,6 C 97 % 994,4 hPa 0,0 l/m 0 min 2 min 0 W/m 12,9 km/h (3 Bft) 100,00 %
01.04.2023 07:26 9,2 C 8,3 C 5,6 C 97 % 994,3 hPa 0,0 l/m 0 min 0 min 0 W/m 16,1 km/h (3 Bft) 100,00 %
01.04.2023 07:28 9,2 C 8,3 C 5,6 C 97 % 994,5 hPa 0,0 l/m 0 min 2 min 0 W/m 19,3 km/h (3 Bft) 97,87 %
01.04.2023 07:30 9,2 C 8,3 C 5,6 C 97 % 994,4 hPa 0,2 l/m 0 min 2 min 0 W/m 19,3 km/h (3 Bft) 97,87 %
01.04.2023 07:32 9,2 C 8,3 C 5,6 C 97 % 994,5 hPa 0,0 l/m 0 min 2 min 0 W/m 16,1 km/h (3 Bft) 95,74 %
01.04.2023 07:34 9,2 C 8,3 C 5,6 C 97 % 994,5 hPa 0,0 l/m 0 min 2 min 0 W/m 19,3 km/h (3 Bft) 95,74 %
01.04.2023 07:36 9,2 C 8,3 C 5,6 C 97 % 994,5 hPa 0,0 l/m 0 min 0 min 0 W/m 12,9 km/h (3 Bft) 100,00 %
01.04.2023 07:38 9,2 C 8,3 C 5,6 C 97 % 994,4 hPa 0,0 l/m 0 min 0 min 0 W/m 9,7 km/h (2 Bft) 85,11 %
01.04.2023 07:40 9,2 C 8,3 C 5,6 C 97 % 994,5 hPa 0,0 l/m 0 min 2 min 0 W/m 22,5 km/h (4 Bft) 80,85 %
01.04.2023 07:42 9,2 C 8,3 C 5,6 C 97 % 994,5 hPa 0,0 l/m 0 min 2 min 0 W/m 12,9 km/h (3 Bft) 78,26 %
01.04.2023 07:44 9,2 C 8,3 C 5,6 C 97 % 994,5 hPa 0,0 l/m 0 min 2 min 2 W/m 25,7 km/h (4 Bft) 89,36 %
01.04.2023 07:46 9,2 C 8,3 C 5,6 C 97 % 994,5 hPa 0,0 l/m 0 min 2 min 5 W/m 12,9 km/h (3 Bft) 89,36 %
01.04.2023 07:48 9,1 C 8,3 C 5,6 C 97 % 994,5 hPa 0,0 l/m 0 min 2 min 9 W/m 22,5 km/h (4 Bft) 93,62 %
01.04.2023 07:50 9,1 C 8,3 C 5,6 C 97 % 994,5 hPa 0,0 l/m 0 min 2 min 12 W/m 16,1 km/h (3 Bft) 76,60 %
01.04.2023 07:52 9,1 C 8,3 C 5,6 C 97 % 994,5 hPa 0,0 l/m 0 min 2 min 11 W/m 25,7 km/h (4 Bft) 97,87 %
01.04.2023 07:54 9,1 C 8,3 C 5,6 C 97 % 994,6 hPa 0,0 l/m 0 min 2 min 14 W/m 16,1 km/h (3 Bft) 97,83 %
01.04.2023 07:56 9,1 C 8,3 C 5,6 C 97 % 994,6 hPa 0,0 l/m 0 min 2 min 15 W/m 16,1 km/h (3 Bft) 95,74 %
01.04.2023 07:58 9,1 C 8,3 C 5,6 C 97 % 994,6 hPa 0,0 l/m 0 min 2 min 20 W/m 9,7 km/h (2 Bft) 95,74 %
01.04.2023 08:00 9,1 C 8,3 C 5,6 C 97 % 994,7 hPa 0,0 l/m 0 min 2 min 26 W/m 19,3 km/h (3 Bft) 93,62 %
01.04.2023 08:02 9,1 C 8,3 C 5,6 C 97 % 994,6 hPa 0,2 l/m 0 min 2 min 31 W/m 12,9 km/h (3 Bft) 93,62 %
01.04.2023 08:04 9,1 C 8,3 C 5,6 C 97 % 994,8 hPa 0,0 l/m 0 min 2 min 42 W/m 12,9 km/h (3 Bft) 95,92 %
01.04.2023 08:06 9,2 C 8,3 C 5,6 C 97 % 994,7 hPa 0,2 l/m 0 min 2 min 40 W/m 9,7 km/h (2 Bft) 93,48 %
01.04.2023 08:08 9,1 C 8,3 C 5,6 C 97 % 994,7 hPa 0,0 l/m 0 min 2 min 33 W/m 19,3 km/h (3 Bft) 95,74 %
01.04.2023 08:10 9,2 C 8,3 C 5,6 C 97 % 994,7 hPa 0,2 l/m 0 min 2 min 23 W/m 16,1 km/h (3 Bft) 93,62 %
01.04.2023 08:12 9,2 C 8,3 C 5,6 C 97 % 994,7 hPa 0,0 l/m 0 min 2 min 17 W/m 16,1 km/h (3 Bft) 95,74 %
01.04.2023 08:14 9,1 C 8,3 C 5,6 C 97 % 994,7 hPa 0,0 l/m 0 min 0 min 17 W/m 19,3 km/h (3 Bft) 95,74 %
01.04.2023 08:16 9,1 C 8,3 C 5,6 C 97 % 994,8 hPa 0,0 l/m 0 min 0 min 16 W/m 22,5 km/h (4 Bft) 93,62 %
01.04.2023 08:18 9,1 C 8,3 C 5,6 C 97 % 994,8 hPa 0,0 l/m 0 min 2 min 14 W/m 25,7 km/h (4 Bft) 95,74 %
01.04.2023 08:20 9,1 C 8,3 C 5,6 C 97 % 994,7 hPa 0,0 l/m 0 min 0 min 12 W/m 22,5 km/h (4 Bft) 95,65 %
01.04.2023 08:22 9,1 C 8,3 C 5,6 C 97 % 994,8 hPa 0,0 l/m 0 min 0 min 12 W/m 16,1 km/h (3 Bft) 93,62 %
01.04.2023 08:24 9,1 C 8,3 C 5,6 C 97 % 994,8 hPa 0,0 l/m 0 min 2 min 13 W/m 12,9 km/h (3 Bft) 95,74 %
01.04.2023 08:26 9,1 C 8,3 C 5,6 C 97 % 994,8 hPa 0,0 l/m 0 min 0 min 14 W/m 19,3 km/h (3 Bft) 93,62 %
01.04.2023 08:28 9,1 C 8,3 C 5,6 C 97 % 994,8 hPa 0,2 l/m 0 min 0 min 15 W/m 19,3 km/h (3 Bft) 89,36 %
01.04.2023 08:30 9,1 C 8,3 C 5,6 C 97 % 994,8 hPa 0,0 l/m 0 min 2 min 20 W/m 12,9 km/h (3 Bft) 95,74 %
01.04.2023 08:32 9,1 C 8,3 C 5,6 C 97 % 994,8 hPa 0,0 l/m 0 min 0 min 25 W/m 29,0 km/h (5 Bft) 95,74 %
01.04.2023 08:34 9,1 C 8,3 C 5,6 C 97 % 994,8 hPa 0,0 l/m 0 min 2 min 24 W/m 16,1 km/h (3 Bft) 93,48 %
01.04.2023 08:36 9,1 C 8,3 C 5,6 C 97 % 994,9 hPa 0,0 l/m 0 min 0 min 25 W/m 22,5 km/h (4 Bft) 97,87 %
01.04.2023 08:38 9,1 C 8,3 C 5,6 C 97 % 994,9 hPa 0,0 l/m 0 min 0 min 26 W/m 16,1 km/h (3 Bft) 95,74 %
01.04.2023 08:40 9,1 C 8,3 C 5,6 C 97 % 994,8 hPa 0,0 l/m 0 min 2 min 26 W/m 16,1 km/h (3 Bft) 97,87 %
01.04.2023 08:42 9,1 C 8,3 C 5,6 C 97 % 994,9 hPa 0,0 l/m 0 min 0 min 29 W/m 12,9 km/h (3 Bft) 97,87 %
01.04.2023 08:44 9,1 C 8,3 C 5,6 C 97 % 994,9 hPa 0,0 l/m 0 min 2 min 31 W/m 6,4 km/h (2 Bft) 95,74 %
01.04.2023 08:46 9,1 C 8,3 C 5,6 C 98 % 995,0 hPa 0,0 l/m 0 min 0 min 34 W/m 19,3 km/h (3 Bft) 93,48 %
01.04.2023 08:48 9,1 C 8,3 C 5,6 C 98 % 994,9 hPa 0,0 l/m 0 min 2 min 34 W/m 9,7 km/h (2 Bft) 100,00 %
01.04.2023 08:50 9,1 C 8,3 C 5,6 C 98 % 995,0 hPa 0,0 l/m 0 min 0 min 35 W/m 16,1 km/h (3 Bft) 100,00 %
01.04.2023 08:52 9,1 C 8,3 C 5,6 C 98 % 995,0 hPa 0,0 l/m 0 min 0 min 37 W/m 19,3 km/h (3 Bft) 97,87 %
01.04.2023 08:54 9,1 C 8,3 C 5,6 C 98 % 995,0 hPa 0,0 l/m 0 min 0 min 43 W/m 12,9 km/h (3 Bft) 97,87 %
01.04.2023 08:56 9,1 C 8,3 C 5,6 C 98 % 995,0 hPa 0,0 l/m 0 min 0 min 42 W/m 19,3 km/h (3 Bft) 93,62 %
01.04.2023 08:58 9,1 C 8,3 C 5,6 C 98 % 995,0 hPa 0,0 l/m 0 min 0 min 42 W/m 19,3 km/h (3 Bft) 97,87 %
01.04.2023 09:00 9,1 C 8,3 C 5,6 C 98 % 995,0 hPa 0,0 l/m 0 min 2 min 43 W/m 22,5 km/h (4 Bft) 97,83 %
01.04.2023 09:02 9,1 C 8,3 C 5,6 C 98 % 995,1 hPa 0,0 l/m 0 min 2 min 45 W/m 19,3 km/h (3 Bft) 91,49 %
01.04.2023 09:04 9,1 C 8,3 C 5,6 C 98 % 995,1 hPa 0,0 l/m 0 min 2 min 41 W/m 19,3 km/h (3 Bft) 93,62 %
01.04.2023 09:06 9,2 C 8,3 C 5,6 C 98 % 995,1 hPa 0,0 l/m 0 min 2 min 36 W/m 22,5 km/h (4 Bft) 97,87 %
01.04.2023 09:08 9,2 C 8,3 C 5,6 C 98 % 995,2 hPa 0,2 l/m 0 min 2 min 35 W/m 22,5 km/h (4 Bft) 95,74 %
01.04.2023 09:10 9,1 C 8,3 C 5,6 C 98 % 995,2 hPa 0,0 l/m 0 min 2 min 39 W/m 16,1 km/h (3 Bft) 97,87 %
01.04.2023 09:12 9,2 C 8,3 C 5,6 C 98 % 995,2 hPa 0,0 l/m 0 min 2 min 43 W/m 16,1 km/h (3 Bft) 97,87 %
01.04.2023 09:14 9,2 C 8,3 C 5,6 C 98 % 995,1 hPa 0,0 l/m 0 min 2 min 44 W/m 19,3 km/h (3 Bft) 95,65 %
01.04.2023 09:16 9,2 C 8,3 C 5,6 C 98 % 995,3 hPa 0,0 l/m 0 min 2 min 48 W/m 16,1 km/h (3 Bft) 97,87 %
01.04.2023 09:18 9,2 C 8,3 C 5,6 C 98 % 995,2 hPa 0,0 l/m 0 min 2 min 52 W/m 16,1 km/h (3 Bft) 97,87 %
01.04.2023 09:20 9,2 C 8,3 C 5,6 C 98 % 995,3 hPa 0,0 l/m 0 min 2 min 52 W/m 29,0 km/h (5 Bft) 95,74 %
01.04.2023 09:22 9,2 C 8,3 C 5,6 C 98 % 995,3 hPa 0,0 l/m 0 min 2 min 46 W/m 25,7 km/h (4 Bft) 97,87 %
01.04.2023 09:24 9,2 C 8,3 C 5,6 C 98 % 995,3 hPa 0,0 l/m 0 min 2 min 40 W/m 19,3 km/h (3 Bft) 95,74 %
01.04.2023 09:26 9,2 C 8,3 C 5,6 C 98 % 995,3 hPa 0,0 l/m 0 min 2 min 38 W/m 19,3 km/h (3 Bft) 95,65 %
01.04.2023 09:28 9,2 C 8,3 C 5,6 C 98 % 995,5 hPa 0,0 l/m 0 min 2 min 39 W/m 16,1 km/h (3 Bft) 97,87 %
01.04.2023 09:30 9,2 C 8,3 C 5,6 C 98 % 995,5 hPa 0,0 l/m 0 min 2 min 47 W/m 19,3 km/h (3 Bft) 97,87 %
01.04.2023 09:32 9,2 C 8,3 C 5,6 C 98 % 995,5 hPa 0,0 l/m 0 min 2 min 54 W/m 16,1 km/h (3 Bft) 97,87 %
01.04.2023 09:34 9,2 C 8,3 C 5,6 C 98 % 995,5 hPa 0,0 l/m 0 min 2 min 49 W/m 19,3 km/h (3 Bft) 97,87 %
01.04.2023 09:36 9,2 C 8,3 C 5,6 C 98 % 995,5 hPa 0,0 l/m 0 min 2 min 40 W/m 16,1 km/h (3 Bft) 95,74 %
01.04.2023 09:38 9,2 C 8,3 C 5,6 C 98 % 995,5 hPa 0,0 l/m 0 min 2 min 43 W/m 16,1 km/h (3 Bft) 100,00 %
01.04.2023 09:40 9,2 C 8,3 C 5,6 C 98 % 995,6 hPa 0,0 l/m 0 min 2 min 45 W/m 19,3 km/h (3 Bft) 95,65 %
01.04.2023 09:42 9,2 C 8,3 C 5,6 C 98 % 995,5 hPa 0,0 l/m 0 min 0 min 53 W/m 19,3 km/h (3 Bft) 100,00 %
01.04.2023 09:44 9,2 C 8,3 C 6,1 C 98 % 995,6 hPa 0,0 l/m 0 min 2 min 59 W/m 16,1 km/h (3 Bft) 100,00 %
01.04.2023 09:46 9,2 C 8,3 C 6,1 C 98 % 995,6 hPa 0,2 l/m 0 min 2 min 64 W/m 16,1 km/h (3 Bft) 97,87 %
01.04.2023 09:48 9,2 C 8,3 C 6,1 C 98 % 995,6 hPa 0,0 l/m 0 min 2 min 72 W/m 32,2 km/h (5 Bft) 97,87 %
01.04.2023 09:50 9,2 C 8,3 C 6,1 C 98 % 995,7 hPa 0,0 l/m 0 min 2 min 88 W/m 19,3 km/h (3 Bft) 100,00 %
01.04.2023 09:52 9,2 C 8,9 C 6,1 C 98 % 995,6 hPa 0,0 l/m 0 min 2 min 91 W/m 22,5 km/h (4 Bft) 97,87 %
01.04.2023 09:54 9,3 C 8,9 C 6,1 C 98 % 995,7 hPa 0,0 l/m 0 min 2 min 90 W/m 29,0 km/h (5 Bft) 100,00 %
01.04.2023 09:56 9,3 C 8,9 C 6,1 C 98 % 995,7 hPa 0,0 l/m 0 min 2 min 98 W/m 19,3 km/h (3 Bft) 95,74 %
01.04.2023 09:58 9,3 C 8,9 C 6,1 C 98 % 995,8 hPa 0,0 l/m 0 min 2 min 95 W/m 19,3 km/h (3 Bft) 100,00 %
01.04.2023 10:00 9,3 C 8,9 C 6,1 C 98 % 995,8 hPa 0,0 l/m 0 min 2 min 95 W/m 16,1 km/h (3 Bft) 97,87 %
01.04.2023 10:02 9,4 C 8,9 C 6,1 C 98 % 995,8 hPa 0,0 l/m 0 min 2 min 78 W/m 25,7 km/h (4 Bft) 95,74 %
01.04.2023 10:04 9,3 C 8,9 C 6,1 C 98 % 995,8 hPa 0,0 l/m 0 min 2 min 68 W/m 19,3 km/h (3 Bft) 89,36 %
01.04.2023 10:06 9,3 C 8,9 C 6,1 C 98 % 995,9 hPa 0,0 l/m 0 min 2 min 68 W/m 16,1 km/h (3 Bft) 20,00 %
01.04.2023 10:08 9,3 C 8,9 C 6,1 C 98 % 995,9 hPa 0,0 l/m 0 min 2 min 62 W/m 12,9 km/h (3 Bft) 95,65 %
01.04.2023 10:10 9,3 C 8,9 C 6,1 C 98 % 995,9 hPa 0,0 l/m 0 min 2 min 67 W/m 16,1 km/h (3 Bft) 97,87 %
01.04.2023 10:12 9,3 C 8,9 C 6,1 C 98 % 995,9 hPa 0,0 l/m 0 min 2 min 63 W/m 16,1 km/h (3 Bft) 97,87 %
01.04.2023 10:14 9,3 C 8,3 C 6,1 C 98 % 996,0 hPa 0,0 l/m 0 min 2 min 63 W/m 22,5 km/h (4 Bft) 95,74 %
01.04.2023 10:16 9,3 C 8,9 C 6,1 C 98 % 996,0 hPa 0,0 l/m 0 min 2 min 69 W/m 22,5 km/h (4 Bft) 97,87 %
01.04.2023 10:18 9,3 C 8,9 C 6,1 C 98 % 996,0 hPa 0,0 l/m 0 min 2 min 78 W/m 22,5 km/h (4 Bft) 97,87 %
01.04.2023 10:20 9,3 C 8,9 C 6,1 C 98 % 996,0 hPa 0,0 l/m 0 min 2 min 78 W/m 19,3 km/h (3 Bft) 97,83 %
01.04.2023 10:22 9,3 C 8,9 C 6,1 C 98 % 996,1 hPa 0,0 l/m 0 min 2 min 73 W/m 22,5 km/h (4 Bft) 95,74 %
01.04.2023 10:24 9,3 C 8,9 C 6,1 C 98 % 996,1 hPa 0,0 l/m 0 min 2 min 71 W/m 22,5 km/h (4 Bft) 97,87 %
01.04.2023 10:26 9,3 C 8,9 C 6,1 C 98 % 996,1 hPa 0,0 l/m 0 min 2 min 74 W/m 19,3 km/h (3 Bft) 97,87 %
01.04.2023 10:28 9,3 C 8,9 C 6,1 C 98 % 996,2 hPa 0,0 l/m 0 min 0 min 73 W/m 19,3 km/h (3 Bft) 97,87 %
01.04.2023 10:30 9,3 C 8,9 C 6,1 C 98 % 996,2 hPa 0,0 l/m 0 min 0 min 80 W/m 16,1 km/h (3 Bft) 100,00 %
01.04.2023 10:32 9,4 C 8,9 C 6,1 C 98 % 996,3 hPa 0,0 l/m 0 min 0 min 86 W/m 16,1 km/h (3 Bft) 100,00 %
01.04.2023 10:34 9,4 C 8,9 C 6,1 C 98 % 996,2 hPa 0,0 l/m 0 min 0 min 88 W/m 16,1 km/h (3 Bft) 100,00 %
01.04.2023 10:36 9,4 C 8,9 C 6,1 C 98 % 996,3 hPa 0,0 l/m 0 min 0 min 89 W/m 12,9 km/h (3 Bft) 100,00 %
01.04.2023 10:38 9,4 C 8,9 C 6,1 C 98 % 996,3 hPa 0,0 l/m 0 min 0 min 83 W/m 22,5 km/h (4 Bft) 97,87 %
01.04.2023 10:40 9,4 C 8,9 C 6,1 C 98 % 996,3 hPa 0,0 l/m 0 min 0 min 88 W/m 19,3 km/h (3 Bft) 100,00 %
01.04.2023 10:42 9,4 C 8,9 C 6,1 C 98 % 996,3 hPa 0,0 l/m 0 min 2 min 79 W/m 22,5 km/h (4 Bft) 97,83 %
01.04.2023 10:44 9,4 C 8,9 C 6,1 C 98 % 996,3 hPa 0,0 l/m 0 min 0 min 70 W/m 19,3 km/h (3 Bft) 100,00 %
01.04.2023 10:46 9,4 C 8,9 C 6,1 C 98 % 996,4 hPa 0,0 l/m 0 min 2 min 73 W/m 19,3 km/h (3 Bft) 100,00 %
01.04.2023 10:48 9,4 C 8,9 C 6,1 C 98 % 996,4 hPa 0,0 l/m 0 min 0 min 84 W/m 12,9 km/h (3 Bft) 100,00 %
01.04.2023 10:50 9,5 C 8,9 C 6,1 C 98 % 996,4 hPa 0,0 l/m 0 min 0 min 87 W/m 22,5 km/h (4 Bft) 97,87 %
01.04.2023 10:52 9,5 C 8,9 C 6,1 C 98 % 996,4 hPa 0,0 l/m 0 min 0 min 98 W/m 16,1 km/h (3 Bft) 97,87 %
01.04.2023 10:54 9,5 C 8,9 C 6,1 C 98 % 996,4 hPa 0,0 l/m 0 min 2 min 110 W/m 22,5 km/h (4 Bft) 97,87 %
01.04.2023 10:56 9,5 C 9,4 C 6,1 C 98 % 996,4 hPa 0,0 l/m 0 min 2 min 116 W/m 19,3 km/h (3 Bft) 97,83 %
01.04.2023 10:58 9,6 C 9,4 C 6,1 C 98 % 996,4 hPa 0,0 l/m 0 min 0 min 128 W/m 16,1 km/h (3 Bft) 97,87 %
01.04.2023 11:00 9,6 C 9,4 C 6,7 C 98 % 996,5 hPa 0,0 l/m 0 min 0 min 162 W/m 16,1 km/h (3 Bft) 97,87 %
01.04.2023 11:02 9,6 C 9,4 C 6,7 C 98 % 996,5 hPa 0,0 l/m 0 min 0 min 171 W/m 19,3 km/h (3 Bft) 95,74 %
01.04.2023 11:04 9,7 C 9,4 C 6,7 C 98 % 996,5 hPa 0,0 l/m 0 min 0 min 207 W/m 29,0 km/h (5 Bft) 97,87 %
01.04.2023 11:06 9,7 C 9,4 C 6,7 C 98 % 996,4 hPa 0,0 l/m 0 min 0 min 189 W/m 16,1 km/h (3 Bft) 97,87 %
01.04.2023 11:08 9,8 C 9,4 C 6,7 C 98 % 996,4 hPa 0,0 l/m 0 min 0 min 178 W/m 12,9 km/h (3 Bft) 97,83 %
01.04.2023 11:10 9,8 C 9,4 C 6,7 C 98 % 996,5 hPa 0,0 l/m 0 min 0 min 199 W/m 29,0 km/h (5 Bft) 97,87 %
01.04.2023 11:12 9,8 C 9,4 C 6,7 C 98 % 996,5 hPa 0,0 l/m 0 min 0 min 145 W/m 19,3 km/h (3 Bft) 95,74 %
01.04.2023 11:14 9,9 C 9,4 C 6,7 C 98 % 996,5 hPa 0,0 l/m 0 min 0 min 128 W/m 16,1 km/h (3 Bft) 95,74 %
01.04.2023 11:16 9,9 C 9,4 C 6,7 C 98 % 996,6 hPa 0,0 l/m 0 min 0 min 125 W/m 16,1 km/h (3 Bft) 97,87 %
01.04.2023 11:18 9,9 C 9,4 C 6,7 C 98 % 996,6 hPa 0,0 l/m 0 min 0 min 154 W/m 16,1 km/h (3 Bft) 95,74 %
01.04.2023 11:20 9,9 C 9,4 C 6,7 C 98 % 996,6 hPa 0,0 l/m 0 min 0 min 167 W/m 22,5 km/h (4 Bft) 95,74 %
01.04.2023 11:22 9,9 C 9,4 C 6,7 C 98 % 996,6 hPa 0,0 l/m 0 min 0 min 129 W/m 19,3 km/h (3 Bft) 97,87 %
01.04.2023 11:24 9,9 C 9,4 C 6,7 C 98 % 996,7 hPa 0,0 l/m 0 min 2 min 123 W/m 16,1 km/h (3 Bft) 95,65 %
01.04.2023 11:26 9,9 C 9,4 C 6,7 C 98 % 996,7 hPa 0,0 l/m 0 min 2 min 117 W/m 19,3 km/h (3 Bft) 95,74 %
01.04.2023 11:28 9,8 C 9,4 C 6,7 C 97 % 996,7 hPa 0,0 l/m 0 min 2 min 103 W/m 22,5 km/h (4 Bft) 97,87 %
01.04.2023 11:30 9,9 C 9,4 C 6,7 C 97 % 996,8 hPa 0,0 l/m 0 min 2 min 105 W/m 12,9 km/h (3 Bft) 95,74 %
01.04.2023 11:32 9,9 C 9,4 C 6,7 C 97 % 996,8 hPa 0,0 l/m 0 min 2 min 88 W/m 12,9 km/h (3 Bft) 93,62 %
01.04.2023 11:34 9,8 C 9,4 C 6,7 C 97 % 996,8 hPa 0,0 l/m 0 min 2 min 72 W/m 19,3 km/h (3 Bft) 95,74 %
01.04.2023 11:36 9,8 C 9,4 C 6,7 C 97 % 996,9 hPa 0,0 l/m 0 min 2 min 67 W/m 16,1 km/h (3 Bft) 91,30 %
01.04.2023 11:38 9,8 C 9,4 C 6,7 C 97 % 996,9 hPa 0,0 l/m 0 min 2 min 74 W/m 19,3 km/h (3 Bft) 93,62 %
01.04.2023 11:40 9,8 C 9,4 C 6,7 C 97 % 996,9 hPa 0,0 l/m 0 min 2 min 86 W/m 19,3 km/h (3 Bft) 97,87 %
01.04.2023 11:42 9,8 C 9,4 C 6,7 C 97 % 997,0 hPa 0,0 l/m 0 min 2 min 79 W/m 22,5 km/h (4 Bft) 95,74 %
01.04.2023 11:44 9,8 C 9,4 C 6,7 C 97 % 997,0 hPa 0,0 l/m 0 min 2 min 76 W/m 12,9 km/h (3 Bft) 95,74 %
01.04.2023 11:46 9,8 C 9,4 C 6,1 C 97 % 997,0 hPa 0,0 l/m 0 min 2 min 76 W/m 19,3 km/h (3 Bft) 95,74 %
01.04.2023 11:48 9,8 C 9,4 C 6,1 C 97 % 997,0 hPa 0,0 l/m 0 min 2 min 91 W/m 12,9 km/h (3 Bft) 95,74 %
01.04.2023 11:50 9,8 C 9,4 C 6,7 C 97 % 997,1 hPa 0,0 l/m 0 min 2 min 107 W/m 16,1 km/h (3 Bft) 95,65 %
01.04.2023 11:52 9,8 C 9,4 C 6,7 C 97 % 997,0 hPa 0,0 l/m 0 min 2 min 104 W/m 22,5 km/h (4 Bft) 95,74 %
01.04.2023 11:54 9,8 C 9,4 C 6,7 C 97 % 997,1 hPa 0,0 l/m 0 min 2 min 93 W/m 22,5 km/h (4 Bft) 93,62 %
01.04.2023 11:56 9,8 C 9,4 C 6,7 C 97 % 997,1 hPa 0,0 l/m 0 min 2 min 90 W/m 19,3 km/h (3 Bft) 91,49 %
01.04.2023 11:58 9,8 C 9,4 C 6,7 C 97 % 997,1 hPa 0,0 l/m 0 min 2 min 95 W/m 19,3 km/h (3 Bft) 95,74 %
01.04.2023 12:00 9,8 C 9,4 C 6,7 C 97 % 997,1 hPa 0,0 l/m 0 min 2 min 101 W/m 19,3 km/h (3 Bft) 95,74 %
01.04.2023 12:02 9,8 C 9,4 C 6,7 C 97 % 997,2 hPa 0,0 l/m 0 min 2 min 93 W/m 19,3 km/h (3 Bft) 95,74 %
01.04.2023 12:04 9,8 C 9,4 C 6,7 C 97 % 997,2 hPa 0,0 l/m 0 min 2 min 108 W/m 19,3 km/h (3 Bft) 94,74 %
01.04.2023 12:08 9,9 C 9,4 C 6,7 C 97 % 997,2 hPa 0,0 l/m 0 min 4 min 118 W/m 22,5 km/h (4 Bft) 96,12 %
01.04.2023 12:10 9,9 C 9,4 C 6,7 C 97 % 997,3 hPa 0,0 l/m 0 min 2 min 153 W/m 25,7 km/h (4 Bft) 95,74 %
01.04.2023 12:12 9,9 C 9,4 C 6,7 C 97 % 997,3 hPa 0,2 l/m 0 min 2 min 151 W/m 12,9 km/h (3 Bft) 93,62 %
01.04.2023 12:14 9,9 C 9,4 C 6,7 C 97 % 997,3 hPa 0,0 l/m 0 min 2 min 128 W/m 25,7 km/h (4 Bft) 95,74 %
01.04.2023 12:16 9,9 C 9,4 C 6,7 C 97 % 997,3 hPa 0,0 l/m 0 min 2 min 132 W/m 19,3 km/h (3 Bft) 95,74 %
01.04.2023 12:18 9,9 C 9,4 C 6,7 C 97 % 997,4 hPa 0,0 l/m 0 min 2 min 107 W/m 32,2 km/h (5 Bft) 95,65 %
01.04.2023 12:20 9,9 C 9,4 C 6,7 C 97 % 997,3 hPa 0,0 l/m 0 min 2 min 108 W/m 16,1 km/h (3 Bft) 97,87 %
01.04.2023 12:22 9,9 C 9,4 C 6,7 C 97 % 997,4 hPa 0,0 l/m 0 min 2 min 97 W/m 12,9 km/h (3 Bft) 97,87 %
01.04.2023 12:24 9,9 C 9,4 C 6,7 C 97 % 997,4 hPa 0,0 l/m 0 min 2 min 92 W/m 12,9 km/h (3 Bft) 97,87 %
01.04.2023 12:26 9,9 C 9,4 C 6,7 C 97 % 997,4 hPa 0,0 l/m 0 min 2 min 87 W/m 12,9 km/h (3 Bft) 100,00 %
01.04.2023 12:28 9,9 C 9,4 C 6,7 C 97 % 997,4 hPa 0,0 l/m 0 min 2 min 87 W/m 16,1 km/h (3 Bft) 100,00 %
01.04.2023 12:30 9,9 C 9,4 C 6,7 C 97 % 997,4 hPa 0,0 l/m 0 min 2 min 88 W/m 16,1 km/h (3 Bft) 100,00 %
01.04.2023 12:32 9,9 C 9,4 C 6,7 C 97 % 997,4 hPa 0,0 l/m 0 min 2 min 101 W/m 16,1 km/h (3 Bft) 97,83 %
01.04.2023 12:34 9,9 C 9,4 C 6,7 C 97 % 997,4 hPa 0,0 l/m 0 min 2 min 111 W/m 19,3 km/h (3 Bft) 100,00 %
01.04.2023 12:36 9,9 C 9,4 C 6,7 C 97 % 997,5 hPa 0,0 l/m 0 min 2 min 93 W/m 22,5 km/h (4 Bft) 97,87 %
01.04.2023 12:38 9,9 C 9,4 C 6,7 C 97 % 997,4 hPa 0,0 l/m 0 min 2 min 83 W/m 19,3 km/h (3 Bft) 95,74 %
01.04.2023 12:40 9,9 C 9,4 C 6,7 C 97 % 997,5 hPa 0,0 l/m 0 min 2 min 89 W/m 9,7 km/h (2 Bft) 100,00 %
01.04.2023 12:42 9,9 C 9,4 C 6,7 C 97 % 997,5 hPa 0,0 l/m 0 min 2 min 89 W/m 16,1 km/h (3 Bft) 100,00 %
01.04.2023 12:44 9,9 C 9,4 C 6,7 C 97 % 997,5 hPa 0,0 l/m 0 min 2 min 100 W/m 19,3 km/h (3 Bft) 100,00 %
01.04.2023 12:46 9,9 C 9,4 C 6,7 C 97 % 997,5 hPa 0,0 l/m 0 min 2 min 92 W/m 16,1 km/h (3 Bft) 100,00 %
01.04.2023 12:48 9,9 C 9,4 C 6,7 C 97 % 997,5 hPa 0,0 l/m 0 min 2 min 100 W/m 12,9 km/h (3 Bft) 100,00 %
01.04.2023 12:50 9,9 C 9,4 C 6,7 C 97 % 997,6 hPa 0,2 l/m 0 min 0 min 102 W/m 25,7 km/h (4 Bft) 100,00 %
01.04.2023 12:52 9,9 C 9,4 C 6,7 C 97 % 997,6 hPa 0,0 l/m 0 min 2 min 105 W/m 12,9 km/h (3 Bft) 100,00 %
01.04.2023 12:54 9,9 C 9,4 C 6,7 C 97 % 997,6 hPa 0,0 l/m 0 min 0 min 95 W/m 12,9 km/h (3 Bft) 100,00 %
01.04.2023 12:56 10,0 C 9,4 C 6,7 C 97 % 997,7 hPa 0,0 l/m 0 min 2 min 96 W/m 16,1 km/h (3 Bft) 100,00 %
01.04.2023 12:58 10,0 C 9,4 C 6,7 C 98 % 997,7 hPa 0,0 l/m 0 min 0 min 97 W/m 22,5 km/h (4 Bft) 100,00 %
01.04.2023 13:00 9,9 C 9,4 C 6,7 C 98 % 997,7 hPa 0,0 l/m 0 min 0 min 111 W/m 22,5 km/h (4 Bft) 100,00 %
01.04.2023 13:02 10,0 C 9,4 C 6,7 C 98 % 997,7 hPa 0,0 l/m 0 min 0 min 139 W/m 9,7 km/h (2 Bft) 100,00 %
01.04.2023 13:04 10,0 C 9,4 C 6,7 C 98 % 997,7 hPa 0,0 l/m 0 min 2 min 158 W/m 19,3 km/h (3 Bft) 100,00 %
01.04.2023 13:06 10,1 C 10,0 C 7,2 C 98 % 997,7 hPa 0,0 l/m 0 min 0 min 202 W/m 16,1 km/h (3 Bft) 100,00 %
01.04.2023 13:08 10,1 C 10,0 C 7,2 C 98 % 997,7 hPa 0,0 l/m 0 min 0 min 186 W/m 19,3 km/h (3 Bft) 97,87 %
01.04.2023 13:10 10,1 C 10,0 C 7,2 C 98 % 997,7 hPa 0,0 l/m 0 min 2 min 142 W/m 12,9 km/h (3 Bft) 100,00 %
01.04.2023 13:12 10,2 C 9,4 C 7,2 C 98 % 997,8 hPa 0,0 l/m 0 min 2 min 94 W/m 25,7 km/h (4 Bft) 100,00 %
01.04.2023 13:14 10,2 C 10,0 C 7,2 C 98 % 997,8 hPa 0,0 l/m 0 min 2 min 111 W/m 19,3 km/h (3 Bft) 100,00 %
01.04.2023 13:16 10,1 C 10,0 C 6,7 C 98 % 997,8 hPa 0,0 l/m 0 min 2 min 96 W/m 16,1 km/h (3 Bft) 97,87 %
01.04.2023 13:18 10,2 C 10,0 C 7,2 C 98 % 997,8 hPa 0,0 l/m 0 min 2 min 102 W/m 16,1 km/h (3 Bft) 100,00 %
01.04.2023 13:20 10,2 C 10,0 C 7,2 C 98 % 997,9 hPa 0,0 l/m 0 min 0 min 121 W/m 16,1 km/h (3 Bft) 100,00 %
01.04.2023 13:22 10,2 C 10,0 C 7,2 C 98 % 997,8 hPa 0,0 l/m 0 min 2 min 171 W/m 25,7 km/h (4 Bft) 100,00 %
01.04.2023 13:24 10,2 C 10,0 C 7,2 C 98 % 998,0 hPa 0,0 l/m 0 min 2 min 193 W/m 16,1 km/h (3 Bft) 100,00 %
01.04.2023 13:26 10,3 C 10,6 C 7,2 C 98 % 997,9 hPa 0,0 l/m 0 min 2 min 167 W/m 16,1 km/h (3 Bft) 97,87 %
01.04.2023 13:28 10,3 C 10,6 C 7,2 C 98 % 997,9 hPa 0,0 l/m 0 min 2 min 143 W/m 19,3 km/h (3 Bft) 97,87 %
01.04.2023 13:30 10,4 C 10,6 C 7,2 C 98 % 997,9 hPa 0,0 l/m 0 min 0 min 143 W/m 19,3 km/h (3 Bft) 100,00 %
01.04.2023 13:32 10,3 C 10,6 C 7,2 C 98 % 998,0 hPa 0,0 l/m 0 min 0 min 157 W/m 16,1 km/h (3 Bft) 100,00 %
01.04.2023 13:34 10,3 C 10,6 C 7,2 C 98 % 998,0 hPa 0,0 l/m 0 min 0 min 123 W/m 16,1 km/h (3 Bft) 100,00 %
01.04.2023 13:36 10,3 C 10,0 C 7,2 C 98 % 998,0 hPa 0,0 l/m 0 min 0 min 115 W/m 12,9 km/h (3 Bft) 95,74 %
01.04.2023 13:38 10,3 C 10,0 C 7,2 C 98 % 998,1 hPa 0,0 l/m 0 min 0 min 89 W/m 16,1 km/h (3 Bft) 100,00 %
01.04.2023 13:40 10,3 C 10,0 C 7,2 C 98 % 998,1 hPa 0,0 l/m 0 min 0 min 89 W/m 19,3 km/h (3 Bft) 97,87 %
01.04.2023 13:42 10,3 C 10,0 C 7,2 C 98 % 998,2 hPa 0,0 l/m 0 min 0 min 74 W/m 19,3 km/h (3 Bft) 95,74 %
01.04.2023 13:44 10,2 C 10,0 C 7,2 C 98 % 998,1 hPa 0,0 l/m 0 min 0 min 88 W/m 16,1 km/h (3 Bft) 97,87 %
01.04.2023 13:46 10,2 C 10,0 C 7,2 C 98 % 998,1 hPa 0,0 l/m 0 min 0 min 83 W/m 16,1 km/h (3 Bft) 97,87 %
01.04.2023 13:48 10,2 C 10,0 C 7,2 C 97 % 998,2 hPa 0,0 l/m 0 min 0 min 98 W/m 19,3 km/h (3 Bft) 97,83 %
01.04.2023 13:50 10,2 C 10,0 C 7,2 C 97 % 998,2 hPa 0,0 l/m 0 min 0 min 105 W/m 19,3 km/h (3 Bft) 95,74 %
01.04.2023 13:52 10,2 C 10,0 C 7,2 C 97 % 998,2 hPa 0,0 l/m 0 min 0 min 133 W/m 16,1 km/h (3 Bft) 95,74 %
01.04.2023 13:54 10,2 C 10,0 C 7,2 C 97 % 998,2 hPa 0,0 l/m 0 min 0 min 113 W/m 16,1 km/h (3 Bft) 95,74 %
01.04.2023 13:56 10,2 C 10,0 C 7,2 C 97 % 998,3 hPa 0,0 l/m 0 min 0 min 92 W/m 16,1 km/h (3 Bft) 95,74 %
01.04.2023 13:58 10,3 C 10,0 C 7,2 C 97 % 998,3 hPa 0,0 l/m 0 min 0 min 101 W/m 16,1 km/h (3 Bft) 91,49 %
01.04.2023 14:00 10,3 C 10,0 C 7,2 C 97 % 998,4 hPa 0,0 l/m 0 min 0 min 106 W/m 12,9 km/h (3 Bft) 91,30 %
01.04.2023 14:02 10,3 C 10,0 C 7,2 C 97 % 998,3 hPa 0,0 l/m 0 min 2 min 110 W/m 16,1 km/h (3 Bft) 93,62 %
01.04.2023 14:04 10,2 C 10,0 C 7,2 C 97 % 998,3 hPa 0,0 l/m 0 min 2 min 112 W/m 22,5 km/h (4 Bft) 95,74 %
01.04.2023 14:06 10,3 C 10,6 C 7,2 C 97 % 998,4 hPa 0,0 l/m 0 min 0 min 138 W/m 12,9 km/h (3 Bft) 95,74 %
01.04.2023 14:08 10,3 C 10,6 C 7,2 C 98 % 998,4 hPa 0,0 l/m 0 min 0 min 105 W/m 16,1 km/h (3 Bft) 93,62 %
01.04.2023 14:10 10,3 C 10,6 C 7,2 C 98 % 998,4 hPa 0,0 l/m 0 min 0 min 100 W/m 12,9 km/h (3 Bft) 93,62 %
01.04.2023 14:12 10,3 C 10,6 C 7,2 C 98 % 998,5 hPa 0,0 l/m 0 min 0 min 87 W/m 12,9 km/h (3 Bft) 93,62 %
01.04.2023 14:14 10,3 C 10,0 C 7,2 C 98 % 998,5 hPa 0,0 l/m 0 min 2 min 78 W/m 16,1 km/h (3 Bft) 91,30 %
01.04.2023 14:16 10,3 C 10,0 C 7,2 C 98 % 998,5 hPa 0,0 l/m 0 min 0 min 74 W/m 12,9 km/h (3 Bft) 91,49 %
01.04.2023 14:18 10,3 C 10,0 C 7,2 C 97 % 998,6 hPa 0,0 l/m 0 min 2 min 77 W/m 19,3 km/h (3 Bft) 93,62 %
01.04.2023 14:20 10,3 C 10,0 C 7,2 C 97 % 998,6 hPa 0,0 l/m 0 min 2 min 83 W/m 19,3 km/h (3 Bft) 95,74 %
01.04.2023 14:22 10,3 C 10,0 C 6,7 C 97 % 998,6 hPa 0,0 l/m 0 min 2 min 73 W/m 16,1 km/h (3 Bft) 95,74 %
01.04.2023 14:24 10,2 C 10,0 C 6,7 C 97 % 998,6 hPa 0,0 l/m 0 min 2 min 82 W/m 16,1 km/h (3 Bft) 95,74 %
01.04.2023 14:26 10,2 C 10,0 C 6,7 C 97 % 998,7 hPa 0,0 l/m 0 min 0 min 109 W/m 19,3 km/h (3 Bft) 95,65 %
01.04.2023 14:28 10,2 C 10,0 C 6,7 C 97 % 998,6 hPa 0,0 l/m 0 min 0 min 124 W/m 16,1 km/h (3 Bft) 93,62 %
01.04.2023 14:30 10,2 C 10,0 C 6,7 C 97 % 998,6 hPa 0,0 l/m 0 min 0 min 145 W/m 12,9 km/h (3 Bft) 95,74 %
01.04.2023 14:32 10,2 C 10,0 C 6,7 C 97 % 998,7 hPa 0,0 l/m 0 min 0 min 174 W/m 25,7 km/h (4 Bft) 91,49 %
01.04.2023 14:34 10,2 C 10,6 C 7,2 C 97 % 998,7 hPa 0,0 l/m 0 min 0 min 189 W/m 12,9 km/h (3 Bft) 95,74 %
01.04.2023 14:36 10,3 C 10,6 C 7,2 C 97 % 998,7 hPa 0,0 l/m 0 min 0 min 192 W/m 16,1 km/h (3 Bft) 95,74 %
01.04.2023 14:38 10,3 C 10,6 C 7,2 C 97 % 998,7 hPa 0,0 l/m 0 min 0 min 196 W/m 12,9 km/h (3 Bft) 97,87 %
01.04.2023 14:40 10,3 C 10,6 C 7,2 C 97 % 998,8 hPa 0,0 l/m 0 min 0 min 190 W/m 12,9 km/h (3 Bft) 95,74 %
01.04.2023 14:42 10,4 C 10,6 C 7,2 C 97 % 998,8 hPa 0,0 l/m 0 min 2 min 154 W/m 12,9 km/h (3 Bft) 97,83 %
01.04.2023 14:44 10,4 C 10,6 C 7,2 C 97 % 998,8 hPa 0,0 l/m 0 min 0 min 175 W/m 19,3 km/h (3 Bft) 97,87 %
01.04.2023 14:46 10,4 C 10,6 C 7,2 C 97 % 998,8 hPa 0,0 l/m 0 min 0 min 166 W/m 16,1 km/h (3 Bft) 93,62 %
01.04.2023 14:48 10,5 C 10,6 C 7,2 C 97 % 998,9 hPa 0,0 l/m 0 min 0 min 151 W/m 19,3 km/h (3 Bft) 95,74 %
01.04.2023 14:50 10,5 C 10,6 C 7,2 C 97 % 998,9 hPa 0,0 l/m 0 min 2 min 153 W/m 22,5 km/h (4 Bft) 97,87 %
01.04.2023 14:52 10,5 C 10,6 C 7,2 C 97 % 999,0 hPa 0,0 l/m 0 min 2 min 169 W/m 19,3 km/h (3 Bft) 95,74 %
01.04.2023 14:54 10,5 C 10,6 C 7,2 C 97 % 999,0 hPa 0,0 l/m 0 min 2 min 174 W/m 19,3 km/h (3 Bft) 97,87 %
01.04.2023 14:56 10,5 C 10,6 C 7,2 C 97 % 998,9 hPa 0,0 l/m 0 min 0 min 164 W/m 16,1 km/h (3 Bft) 97,83 %
01.04.2023 14:58 10,6 C 10,6 C 7,2 C 97 % 999,1 hPa 0,0 l/m 0 min 0 min 158 W/m 19,3 km/h (3 Bft) 95,74 %
01.04.2023 15:00 10,5 C 10,6 C 7,2 C 97 % 999,0 hPa 0,0 l/m 0 min 2 min 143 W/m 16,1 km/h (3 Bft) 100,00 %
01.04.2023 15:02 10,6 C 10,6 C 7,2 C 97 % 999,0 hPa 0,0 l/m 0 min 2 min 128 W/m 22,5 km/h (4 Bft) 100,00 %
01.04.2023 15:04 10,6 C 10,6 C 7,2 C 96 % 999,0 hPa 0,0 l/m 0 min 2 min 120 W/m 9,7 km/h (2 Bft) 100,00 %
01.04.2023 15:06 10,6 C 10,6 C 7,2 C 96 % 999,1 hPa 0,0 l/m 0 min 2 min 84 W/m 16,1 km/h (3 Bft) 97,87 %
01.04.2023 15:08 10,6 C 10,6 C 7,2 C 96 % 999,1 hPa 0,0 l/m 0 min 2 min 109 W/m 12,9 km/h (3 Bft) 100,00 %
01.04.2023 15:10 10,6 C 10,0 C 7,2 C 96 % 999,1 hPa 0,0 l/m 0 min 2 min 96 W/m 12,9 km/h (3 Bft) 100,00 %
01.04.2023 15:12 10,6 C 10,6 C 7,2 C 96 % 999,2 hPa 0,0 l/m 0 min 2 min 104 W/m 16,1 km/h (3 Bft) 100,00 %
01.04.2023 15:14 10,6 C 10,6 C 7,2 C 96 % 999,1 hPa 0,0 l/m 0 min 2 min 101 W/m 12,9 km/h (3 Bft) 100,00 %
01.04.2023 15:16 10,6 C 10,6 C 7,2 C 96 % 999,1 hPa 0,0 l/m 0 min 2 min 102 W/m 9,7 km/h (2 Bft) 97,87 %
01.04.2023 15:18 10,6 C 10,6 C 7,2 C 96 % 999,2 hPa 0,0 l/m 0 min 2 min 107 W/m 25,7 km/h (4 Bft) 100,00 %
01.04.2023 15:20 10,6 C 10,0 C 7,2 C 96 % 999,2 hPa 0,0 l/m 0 min 2 min 109 W/m 16,1 km/h (3 Bft) 100,00 %
01.04.2023 15:22 10,6 C 10,6 C 7,2 C 96 % 999,2 hPa 0,0 l/m 0 min 0 min 100 W/m 12,9 km/h (3 Bft) 100,00 %
01.04.2023 15:24 10,6 C 10,6 C 7,2 C 96 % 999,3 hPa 0,0 l/m 0 min 0 min 102 W/m 6,4 km/h (2 Bft) 100,00 %
01.04.2023 15:26 10,6 C 10,6 C 7,2 C 96 % 999,3 hPa 0,0 l/m 0 min 2 min 92 W/m 16,1 km/h (3 Bft) 100,00 %
01.04.2023 15:28 10,6 C 10,6 C 7,2 C 96 % 999,4 hPa 0,0 l/m 0 min 2 min 90 W/m 16,1 km/h (3 Bft) 97,87 %
01.04.2023 15:30 10,6 C 10,0 C 7,2 C 96 % 999,3 hPa 0,0 l/m 0 min 2 min 78 W/m 16,1 km/h (3 Bft) 100,00 %
01.04.2023 15:32 10,6 C 10,0 C 6,7 C 96 % 999,4 hPa 0,0 l/m 0 min 2 min 71 W/m 22,5 km/h (4 Bft) 100,00 %
01.04.2023 15:34 10,5 C 10,0 C 6,7 C 96 % 999,4 hPa 0,0 l/m 0 min 2 min 72 W/m 19,3 km/h (3 Bft) 97,87 %
01.04.2023 15:36 10,5 C 10,0 C 7,2 C 96 % 999,5 hPa 0,0 l/m 0 min 2 min 74 W/m 12,9 km/h (3 Bft) 100,00 %
01.04.2023 15:38 10,5 C 10,0 C 6,7 C 96 % 999,4 hPa 0,0 l/m 0 min 2 min 72 W/m 12,9 km/h (3 Bft) 97,87 %
01.04.2023 15:40 10,6 C 10,6 C 7,2 C 96 % 999,5 hPa 0,0 l/m 0 min 2 min 85 W/m 12,9 km/h (3 Bft) 97,87 %
01.04.2023 15:42 10,6 C 10,6 C 7,2 C 96 % 999,5 hPa 0,0 l/m 0 min 2 min 110 W/m 19,3 km/h (3 Bft) 97,87 %
01.04.2023 15:44 10,7 C 10,6 C 7,2 C 96 % 999,5 hPa 0,0 l/m 0 min 2 min 168 W/m 19,3 km/h (3 Bft) 97,87 %
01.04.2023 15:46 10,7 C 11,1 C 7,2 C 96 % 999,5 hPa 0,0 l/m 0 min 2 min 154 W/m 19,3 km/h (3 Bft) 97,87 %
01.04.2023 15:48 10,7 C 11,1 C 7,2 C 96 % 999,5 hPa 0,0 l/m 0 min 2 min 158 W/m 19,3 km/h (3 Bft) 97,83 %
01.04.2023 15:50 10,8 C 11,1 C 7,2 C 96 % 999,6 hPa 0,0 l/m 0 min 2 min 154 W/m 19,3 km/h (3 Bft) 97,87 %
01.04.2023 15:52 10,9 C 11,1 C 7,2 C 96 % 999,6 hPa 0,0 l/m 0 min 2 min 146 W/m 19,3 km/h (3 Bft) 97,87 %
01.04.2023 15:54 10,9 C 11,1 C 7,2 C 96 % 999,5 hPa 0,0 l/m 0 min 0 min 143 W/m 16,1 km/h (3 Bft) 95,74 %
01.04.2023 15:56 10,9 C 11,1 C 7,2 C 96 % 999,6 hPa 0,0 l/m 0 min 0 min 172 W/m 19,3 km/h (3 Bft) 95,74 %
01.04.2023 15:58 10,9 C 11,1 C 7,2 C 95 % 999,6 hPa 0,0 l/m 0 min 0 min 176 W/m 12,9 km/h (3 Bft) 97,87 %
01.04.2023 16:00 11,0 C 11,1 C 7,2 C 95 % 999,6 hPa 0,0 l/m 0 min 2 min 185 W/m 22,5 km/h (4 Bft) 97,87 %
01.04.2023 16:02 11,1 C 11,7 C 7,2 C 95 % 999,6 hPa 0,0 l/m 0 min 2 min 168 W/m 6,4 km/h (2 Bft) 95,65 %
01.04.2023 16:04 11,1 C 11,7 C 7,8 C 95 % 999,7 hPa 0,0 l/m 0 min 0 min 198 W/m 16,1 km/h (3 Bft) 97,87 %
01.04.2023 16:06 11,1 C 11,7 C 7,8 C 95 % 999,7 hPa 0,0 l/m 0 min 0 min 181 W/m 29,0 km/h (5 Bft) 95,74 %
01.04.2023 16:08 11,2 C 11,7 C 7,8 C 95 % 999,7 hPa 0,0 l/m 0 min 0 min 186 W/m 16,1 km/h (3 Bft) 95,74 %
01.04.2023 16:10 11,2 C 11,7 C 7,8 C 95 % 999,6 hPa 0,0 l/m 0 min 0 min 170 W/m 16,1 km/h (3 Bft) 95,74 %
01.04.2023 16:12 11,2 C 11,7 C 7,8 C 95 % 999,7 hPa 0,0 l/m 0 min 0 min 167 W/m 16,1 km/h (3 Bft) 97,87 %
01.04.2023 16:14 11,2 C 11,7 C 7,2 C 95 % 999,6 hPa 0,0 l/m 0 min 2 min 172 W/m 16,1 km/h (3 Bft) 100,00 %
01.04.2023 16:16 11,2 C 11,7 C 7,2 C 95 % 999,7 hPa 0,0 l/m 0 min 0 min 132 W/m 19,3 km/h (3 Bft) 100,00 %
01.04.2023 16:18 11,2 C 11,7 C 7,8 C 95 % 999,7 hPa 0,0 l/m 0 min 0 min 149 W/m 12,9 km/h (3 Bft) 97,87 %
01.04.2023 16:20 11,3 C 11,7 C 7,8 C 95 % 999,8 hPa 0,0 l/m 0 min 0 min 164 W/m 12,9 km/h (3 Bft) 100,00 %
01.04.2023 16:22 11,3 C 11,7 C 7,8 C 95 % 999,8 hPa 0,0 l/m 0 min 2 min 167 W/m 22,5 km/h (4 Bft) 100,00 %
01.04.2023 16:24 11,2 C 11,7 C 7,8 C 95 % 999,8 hPa 0,0 l/m 0 min 0 min 161 W/m 22,5 km/h (4 Bft) 97,87 %
01.04.2023 16:26 11,2 C 11,7 C 7,2 C 95 % 999,8 hPa 0,0 l/m 0 min 2 min 174 W/m 25,7 km/h (4 Bft) 100,00 %
01.04.2023 16:28 11,2 C 11,1 C 7,2 C 94 % 999,9 hPa 0,0 l/m 0 min 2 min 151 W/m 29,0 km/h (5 Bft) 100,00 %
01.04.2023 16:30 11,2 C 11,1 C 7,2 C 94 % 999,9 hPa 0,0 l/m 0 min 2 min 145 W/m 22,5 km/h (4 Bft) 97,87 %
01.04.2023 16:32 11,2 C 11,1 C 7,2 C 94 % 999,8 hPa 0,0 l/m 0 min 2 min 139 W/m 22,5 km/h (4 Bft) 97,87 %
01.04.2023 16:34 11,2 C 11,1 C 7,2 C 94 % 999,9 hPa 0,0 l/m 0 min 0 min 153 W/m 12,9 km/h (3 Bft) 100,00 %
01.04.2023 16:36 11,2 C 11,1 C 7,2 C 94 % 999,9 hPa 0,0 l/m 0 min 2 min 124 W/m 19,3 km/h (3 Bft) 93,62 %
01.04.2023 16:38 11,2 C 11,1 C 7,2 C 94 % 999,9 hPa 0,0 l/m 0 min 2 min 99 W/m 16,1 km/h (3 Bft) 100,00 %
01.04.2023 16:40 11,2 C 11,1 C 7,2 C 94 % 999,9 hPa 0,0 l/m 0 min 2 min 88 W/m 16,1 km/h (3 Bft) 100,00 %
01.04.2023 16:42 11,1 C 10,6 C 7,2 C 94 % 1000,0 hPa 0,0 l/m 0 min 2 min 70 W/m 16,1 km/h (3 Bft) 97,83 %
01.04.2023 16:44 11,1 C 10,6 C 7,2 C 94 % 1000,0 hPa 0,2 l/m 0 min 2 min 74 W/m 19,3 km/h (3 Bft) 97,87 %
01.04.2023 16:46 11,0 C 10,6 C 7,2 C 94 % 1000,0 hPa 0,0 l/m 0 min 2 min 86 W/m 19,3 km/h (3 Bft) 95,74 %
01.04.2023 16:48 10,9 C 10,6 C 7,2 C 94 % 1000,1 hPa 0,0 l/m 0 min 2 min 87 W/m 16,1 km/h (3 Bft) 95,74 %
01.04.2023 16:50 10,9 C 10,6 C 7,2 C 94 % 1000,1 hPa 0,0 l/m 0 min 2 min 100 W/m 22,5 km/h (4 Bft) 95,74 %
01.04.2023 16:52 10,8 C 10,6 C 7,2 C 94 % 1000,1 hPa 0,0 l/m 0 min 2 min 87 W/m 19,3 km/h (3 Bft) 97,87 %
01.04.2023 16:54 10,8 C 10,6 C 7,2 C 94 % 1000,1 hPa 0,0 l/m 0 min 2 min 85 W/m 12,9 km/h (3 Bft) 93,62 %
01.04.2023 16:56 10,8 C 10,6 C 7,2 C 95 % 1000,2 hPa 0,0 l/m 0 min 2 min 97 W/m 22,5 km/h (4 Bft) 95,65 %
01.04.2023 16:58 10,8 C 10,6 C 7,2 C 95 % 1000,2 hPa 0,0 l/m 0 min 2 min 128 W/m 19,3 km/h (3 Bft) 95,74 %
01.04.2023 17:00 10,8 C 10,6 C 7,2 C 95 % 1000,2 hPa 0,0 l/m 0 min 2 min 112 W/m 25,7 km/h (4 Bft) 89,36 %
01.04.2023 17:02 10,8 C 10,6 C 7,2 C 95 % 1000,3 hPa 0,0 l/m 0 min 2 min 94 W/m 25,7 km/h (4 Bft) 95,74 %
01.04.2023 17:04 10,7 C 10,0 C 7,2 C 95 % 1000,2 hPa 0,0 l/m 0 min 2 min 79 W/m 22,5 km/h (4 Bft) 93,62 %
01.04.2023 17:06 10,7 C 10,0 C 7,2 C 95 % 1000,4 hPa 0,2 l/m 0 min 2 min 78 W/m 16,1 km/h (3 Bft) 89,36 %
01.04.2023 17:08 10,7 C 10,0 C 7,2 C 95 % 1000,2 hPa 0,0 l/m 0 min 2 min 83 W/m 19,3 km/h (3 Bft) 91,49 %
01.04.2023 17:10 10,7 C 10,0 C 7,2 C 95 % 1000,3 hPa 0,0 l/m 0 min 0 min 82 W/m 16,1 km/h (3 Bft) 95,65 %
01.04.2023 17:12 10,6 C 10,0 C 7,2 C 95 % 1000,4 hPa 0,0 l/m 0 min 0 min 89 W/m 19,3 km/h (3 Bft) 93,62 %
01.04.2023 17:14 10,6 C 10,0 C 7,2 C 95 % 1000,3 hPa 0,0 l/m 0 min 0 min 102 W/m 22,5 km/h (4 Bft) 95,74 %
01.04.2023 17:16 10,6 C 10,6 C 7,2 C 95 % 1000,4 hPa 0,0 l/m 0 min 0 min 101 W/m 12,9 km/h (3 Bft) 95,74 %
01.04.2023 17:18 10,6 C 10,6 C 7,2 C 95 % 1000,4 hPa 0,0 l/m 0 min 0 min 108 W/m 19,3 km/h (3 Bft) 95,74 %
01.04.2023 17:20 10,6 C 10,0 C 6,7 C 95 % 1000,4 hPa 0,0 l/m 0 min 0 min 101 W/m 22,5 km/h (4 Bft) 93,62 %
01.04.2023 17:22 10,6 C 10,6 C 7,2 C 95 % 1000,5 hPa 0,0 l/m 0 min 0 min 97 W/m 19,3 km/h (3 Bft) 93,48 %
01.04.2023 17:24 10,6 C 10,6 C 7,2 C 95 % 1000,4 hPa 0,0 l/m 0 min 0 min 95 W/m 19,3 km/h (3 Bft) 93,62 %
01.04.2023 17:26 10,6 C 10,6 C 7,2 C 95 % 1000,5 hPa 0,0 l/m 0 min 0 min 90 W/m 16,1 km/h (3 Bft) 95,74 %
01.04.2023 17:28 10,6 C 10,6 C 7,2 C 95 % 1000,5 hPa 0,0 l/m 0 min 0 min 85 W/m 16,1 km/h (3 Bft) 93,62 %
01.04.2023 17:30 10,7 C 10,6 C 7,2 C 95 % 1000,5 hPa 0,0 l/m 0 min 0 min 82 W/m 12,9 km/h (3 Bft) 91,49 %
01.04.2023 17:32 10,6 C 10,0 C 7,2 C 95 % 1000,5 hPa 0,0 l/m 0 min 0 min 68 W/m 6,4 km/h (2 Bft) 95,74 %
01.04.2023 17:34 10,6 C 10,0 C 7,2 C 95 % 1000,6 hPa 0,0 l/m 0 min 0 min 61 W/m 16,1 km/h (3 Bft) 93,62 %
01.04.2023 17:36 10,6 C 10,0 C 6,7 C 95 % 1000,6 hPa 0,0 l/m 0 min 2 min 64 W/m 19,3 km/h (3 Bft) 93,48 %
01.04.2023 17:38 10,6 C 10,0 C 6,7 C 95 % 1000,6 hPa 0,0 l/m 0 min 2 min 64 W/m 19,3 km/h (3 Bft) 95,74 %
01.04.2023 17:40 10,5 C 10,0 C 6,7 C 95 % 1000,6 hPa 0,0 l/m 0 min 2 min 63 W/m 19,3 km/h (3 Bft) 95,74 %
01.04.2023 17:42 10,5 C 10,0 C 6,7 C 95 % 1000,7 hPa 0,0 l/m 0 min 0 min 73 W/m 19,3 km/h (3 Bft) 95,74 %
01.04.2023 17:44 10,5 C 10,0 C 6,7 C 95 % 1000,6 hPa 0,0 l/m 0 min 2 min 71 W/m 25,7 km/h (4 Bft) 93,62 %
01.04.2023 17:46 10,4 C 10,0 C 6,7 C 95 % 1000,7 hPa 0,0 l/m 0 min 2 min 69 W/m 19,3 km/h (3 Bft) 97,83 %
01.04.2023 17:48 10,4 C 10,0 C 6,7 C 95 % 1000,7 hPa 0,0 l/m 0 min 0 min 64 W/m 25,7 km/h (4 Bft) 97,87 %
01.04.2023 17:50 10,5 C 10,0 C 6,7 C 95 % 1000,7 hPa 0,0 l/m 0 min 0 min 59 W/m 16,1 km/h (3 Bft) 97,83 %
01.04.2023 17:52 10,5 C 10,0 C 6,7 C 95 % 1000,8 hPa 0,0 l/m 0 min 0 min 54 W/m 16,1 km/h (3 Bft) 95,74 %
01.04.2023 17:54 10,5 C 10,0 C 6,7 C 95 % 1000,8 hPa 0,0 l/m 0 min 0 min 52 W/m 16,1 km/h (3 Bft) 97,87 %
01.04.2023 17:56 10,5 C 10,0 C 6,7 C 95 % 1000,8 hPa 0,0 l/m 0 min 2 min 47 W/m 12,9 km/h (3 Bft) 97,87 %
01.04.2023 17:58 10,6 C 10,0 C 6,7 C 95 % 1000,8 hPa 0,0 l/m 0 min 2 min 51 W/m 16,1 km/h (3 Bft) 97,87 %
01.04.2023 18:00 10,5 C 10,0 C 6,7 C 95 % 1000,8 hPa 0,0 l/m 0 min 2 min 54 W/m 16,1 km/h (3 Bft) 97,87 %
01.04.2023 18:02 10,5 C 10,0 C 6,7 C 95 % 1000,9 hPa 0,0 l/m 0 min 2 min 55 W/m 19,3 km/h (3 Bft) 97,87 %
01.04.2023 18:04 10,5 C 10,0 C 6,7 C 95 % 1000,9 hPa 0,0 l/m 0 min 2 min 50 W/m 12,9 km/h (3 Bft) 100,00 %
01.04.2023 18:07 10,5 C 10,0 C 6,7 C 95 % 1000,9 hPa 0,0 l/m 0 min 3 min 61 W/m 16,1 km/h (3 Bft) 100,00 %
01.04.2023 18:08 10,4 C 10,0 C 6,7 C 95 % 1000,9 hPa 0,0 l/m 0 min 1 min 63 W/m 19,3 km/h (3 Bft) 95,65 %
01.04.2023 18:12 10,4 C 10,0 C 6,7 C 96 % 1001,0 hPa 0,0 l/m 0 min 4 min 45 W/m 22,5 km/h (4 Bft) 98,15 %
01.04.2023 18:14 10,4 C 10,0 C 6,7 C 96 % 1001,0 hPa 0,0 l/m 0 min 2 min 51 W/m 12,9 km/h (3 Bft) 100,00 %
01.04.2023 18:16 10,4 C 9,4 C 6,7 C 96 % 1001,0 hPa 0,0 l/m 0 min 2 min 40 W/m 12,9 km/h (3 Bft) 100,00 %
01.04.2023 18:18 10,3 C 9,4 C 6,7 C 96 % 1001,1 hPa 0,0 l/m 0 min 2 min 37 W/m 12,9 km/h (3 Bft) 100,00 %
01.04.2023 18:20 10,3 C 9,4 C 6,7 C 96 % 1001,2 hPa 0,0 l/m 0 min 2 min 39 W/m 16,1 km/h (3 Bft) 97,87 %
01.04.2023 18:22 10,3 C 9,4 C 6,7 C 96 % 1001,1 hPa 0,2 l/m 0 min 2 min 34 W/m 16,1 km/h (3 Bft) 100,00 %
01.04.2023 18:24 10,3 C 9,4 C 6,7 C 96 % 1001,1 hPa 0,0 l/m 0 min 2 min 34 W/m 6,4 km/h (2 Bft) 97,87 %
01.04.2023 18:26 10,3 C 9,4 C 6,7 C 96 % 1001,2 hPa 0,0 l/m 0 min 2 min 31 W/m 16,1 km/h (3 Bft) 100,00 %
01.04.2023 18:28 10,3 C 9,4 C 6,7 C 96 % 1001,1 hPa 0,0 l/m 0 min 2 min 26 W/m 12,9 km/h (3 Bft) 97,87 %
01.04.2023 18:30 10,3 C 9,4 C 6,7 C 96 % 1001,2 hPa 0,2 l/m 0 min 2 min 23 W/m 12,9 km/h (3 Bft) 97,83 %
01.04.2023 18:32 10,2 C 9,4 C 6,7 C 96 % 1001,2 hPa 0,0 l/m 0 min 2 min 27 W/m 19,3 km/h (3 Bft) 100,00 %
01.04.2023 18:34 10,2 C 9,4 C 6,7 C 96 % 1001,3 hPa 0,0 l/m 0 min 2 min 33 W/m 12,9 km/h (3 Bft) 97,87 %
01.04.2023 18:36 10,2 C 9,4 C 6,7 C 96 % 1001,3 hPa 0,0 l/m 0 min 2 min 40 W/m 19,3 km/h (3 Bft) 100,00 %
01.04.2023 18:38 10,2 C 9,4 C 6,7 C 96 % 1001,3 hPa 0,0 l/m 0 min 2 min 40 W/m 12,9 km/h (3 Bft) 100,00 %
01.04.2023 18:40 10,2 C 9,4 C 6,7 C 96 % 1001,4 hPa 0,0 l/m 0 min 2 min 36 W/m 12,9 km/h (3 Bft) 97,87 %
01.04.2023 18:42 10,2 C 9,4 C 6,7 C 96 % 1001,4 hPa 0,0 l/m 0 min 2 min 28 W/m 22,5 km/h (4 Bft) 100,00 %
01.04.2023 18:44 10,1 C 9,4 C 6,7 C 96 % 1001,4 hPa 0,0 l/m 0 min 2 min 28 W/m 19,3 km/h (3 Bft) 100,00 %
01.04.2023 18:46 10,1 C 9,4 C 6,7 C 96 % 1001,4 hPa 0,0 l/m 0 min 2 min 21 W/m 12,9 km/h (3 Bft) 100,00 %
01.04.2023 18:48 10,1 C 9,4 C 6,7 C 97 % 1001,5 hPa 0,0 l/m 0 min 2 min 25 W/m 12,9 km/h (3 Bft) 100,00 %
01.04.2023 18:50 10,1 C 9,4 C 6,7 C 97 % 1001,5 hPa 0,0 l/m 0 min 2 min 29 W/m 6,4 km/h (2 Bft) 100,00 %
01.04.2023 18:52 10,1 C 9,4 C 6,7 C 97 % 1001,5 hPa 0,0 l/m 0 min 2 min 29 W/m 12,9 km/h (3 Bft) 100,00 %
01.04.2023 18:54 10,1 C 9,4 C 6,7 C 97 % 1001,6 hPa 0,0 l/m 0 min 2 min 24 W/m 6,4 km/h (2 Bft) 100,00 %
01.04.2023 18:56 10,1 C 9,4 C 6,7 C 97 % 1001,6 hPa 0,0 l/m 0 min 2 min 27 W/m 12,9 km/h (3 Bft) 100,00 %
01.04.2023 18:58 10,1 C 9,4 C 6,7 C 97 % 1001,6 hPa 0,2 l/m 0 min 2 min 32 W/m 12,9 km/h (3 Bft) 100,00 %
01.04.2023 19:00 10,1 C 9,4 C 6,7 C 97 % 1001,6 hPa 0,0 l/m 0 min 2 min 28 W/m 16,1 km/h (3 Bft) 100,00 %
01.04.2023 19:02 10,1 C 9,4 C 6,7 C 97 % 1001,7 hPa 0,0 l/m 0 min 2 min 23 W/m 9,7 km/h (2 Bft) 95,74 %
01.04.2023 19:04 10,1 C 9,4 C 6,7 C 97 % 1001,7 hPa 0,0 l/m 0 min 2 min 20 W/m 6,4 km/h (2 Bft) 100,00 %
01.04.2023 19:06 10,1 C 9,4 C 6,7 C 97 % 1001,7 hPa 0,0 l/m 0 min 0 min 19 W/m 12,9 km/h (3 Bft) 98,31 %
01.04.2023 19:08 10,0 C 9,4 C 6,7 C 97 % 1001,8 hPa 0,0 l/m 0 min 0 min 17 W/m 9,7 km/h (2 Bft) 97,14 %
01.04.2023 19:10 10,0 C 9,4 C 6,7 C 97 % 1001,7 hPa 0,0 l/m 0 min 0 min 17 W/m 12,9 km/h (3 Bft) 97,87 %
01.04.2023 19:12 10,0 C 9,4 C 6,7 C 97 % 1001,8 hPa 0,0 l/m 0 min 0 min 19 W/m 12,9 km/h (3 Bft) 97,83 %
01.04.2023 19:14 10,0 C 9,4 C 6,7 C 97 % 1001,9 hPa 0,0 l/m 0 min 2 min 22 W/m 16,1 km/h (3 Bft) 100,00 %
01.04.2023 19:16 10,0 C 9,4 C 6,7 C 97 % 1001,9 hPa 0,0 l/m 0 min 2 min 25 W/m 16,1 km/h (3 Bft) 97,87 %
01.04.2023 19:18 10,0 C 9,4 C 6,7 C 97 % 1001,9 hPa 0,0 l/m 0 min 2 min 23 W/m 12,9 km/h (3 Bft) 100,00 %
01.04.2023 19:20 10,0 C 9,4 C 6,7 C 97 % 1001,9 hPa 0,0 l/m 0 min 2 min 19 W/m 9,7 km/h (2 Bft) 95,74 %
01.04.2023 19:22 10,0 C 9,4 C 6,7 C 97 % 1001,9 hPa 0,0 l/m 0 min 2 min 16 W/m 6,4 km/h (2 Bft) 97,87 %
01.04.2023 19:24 10,0 C 9,4 C 6,7 C 97 % 1001,9 hPa 0,0 l/m 0 min 2 min 13 W/m 16,1 km/h (3 Bft) 100,00 %
01.04.2023 19:26 10,0 C 9,4 C 6,7 C 97 % 1002,0 hPa 0,0 l/m 0 min 2 min 11 W/m 12,9 km/h (3 Bft) 95,74 %
01.04.2023 19:28 10,0 C 9,4 C 6,7 C 97 % 1002,0 hPa 0,0 l/m 0 min 2 min 9 W/m 12,9 km/h (3 Bft) 97,87 %
01.04.2023 19:30 9,9 C 9,4 C 6,7 C 97 % 1002,0 hPa 0,0 l/m 0 min 2 min 8 W/m 12,9 km/h (3 Bft) 95,74 %
01.04.2023 19:32 9,9 C 9,4 C 6,7 C 97 % 1002,0 hPa 0,2 l/m 0 min 2 min 5 W/m 6,4 km/h (2 Bft) 89,36 %
01.04.2023 19:34 9,9 C 9,4 C 6,7 C 97 % 1002,1 hPa 0,0 l/m 0 min 2 min 4 W/m 16,1 km/h (3 Bft) 95,74 %
01.04.2023 19:36 9,9 C 8,9 C 6,7 C 97 % 1002,1 hPa 0,0 l/m 0 min 2 min 0 W/m 9,7 km/h (2 Bft) 97,87 %
01.04.2023 19:38 9,9 C 8,9 C 6,7 C 97 % 1002,1 hPa 0,2 l/m 0 min 2 min 2 W/m 16,1 km/h (3 Bft) 97,83 %
01.04.2023 19:40 9,9 C 8,9 C 6,7 C 97 % 1002,2 hPa 0,0 l/m 0 min 2 min 0 W/m 12,9 km/h (3 Bft) 95,74 %
01.04.2023 19:42 9,9 C 8,9 C 6,7 C 97 % 1002,2 hPa 0,2 l/m 0 min 2 min 0 W/m 12,9 km/h (3 Bft) 95,74 %
01.04.2023 19:44 9,9 C 8,9 C 6,7 C 97 % 1002,3 hPa 0,0 l/m 0 min 2 min 0 W/m 12,9 km/h (3 Bft) 95,74 %
01.04.2023 19:46 9,8 C 8,9 C 6,7 C 97 % 1002,2 hPa 0,0 l/m 0 min 2 min 0 W/m 12,9 km/h (3 Bft) 95,74 %
01.04.2023 19:48 9,8 C 8,9 C 6,7 C 97 % 1002,3 hPa 0,2 l/m 0 min 2 min 0 W/m 12,9 km/h (3 Bft) 91,49 %
01.04.2023 19:50 9,8 C 8,9 C 6,7 C 97 % 1002,3 hPa 0,0 l/m 0 min 2 min 0 W/m 12,9 km/h (3 Bft) 93,62 %
01.04.2023 19:52 9,8 C 8,9 C 6,7 C 97 % 1002,4 hPa 0,0 l/m 0 min 2 min 0 W/m 6,4 km/h (2 Bft) 91,30 %
01.04.2023 19:54 9,7 C 8,9 C 6,7 C 97 % 1002,4 hPa 0,2 l/m 0 min 2 min 0 W/m 6,4 km/h (2 Bft) 93,62 %
01.04.2023 19:56 9,7 C 8,9 C 6,7 C 97 % 1002,4 hPa 0,0 l/m 0 min 2 min 0 W/m 6,4 km/h (2 Bft) 91,49 %
01.04.2023 19:58 9,7 C 8,9 C 6,7 C 97 % 1002,5 hPa 0,0 l/m 0 min 2 min 0 W/m 6,4 km/h (2 Bft) 95,74 %
01.04.2023 20:00 9,7 C 8,9 C 6,7 C 97 % 1002,5 hPa 0,2 l/m 0 min 2 min 0 W/m 9,7 km/h (2 Bft) 95,74 %
01.04.2023 20:02 9,7 C 8,9 C 6,1 C 97 % 1002,5 hPa 0,0 l/m 0 min 2 min 0 W/m 12,9 km/h (3 Bft) 93,62 %
01.04.2023 20:04 9,7 C 8,9 C 6,7 C 97 % 1002,5 hPa 0,0 l/m 0 min 2 min 0 W/m 9,7 km/h (2 Bft) 97,87 %
01.04.2023 20:06 9,7 C 8,9 C 6,7 C 97 % 1002,6 hPa 0,2 l/m 0 min 2 min 0 W/m 16,1 km/h (3 Bft) 96,61 %
01.04.2023 20:08 9,6 C 8,9 C 6,7 C 97 % 1002,6 hPa 0,0 l/m 0 min 2 min 0 W/m 6,4 km/h (2 Bft) 91,43 %
01.04.2023 20:10 9,6 C 8,9 C 6,7 C 98 % 1002,6 hPa 0,0 l/m 0 min 2 min 0 W/m 6,4 km/h (2 Bft) 95,74 %
01.04.2023 20:12 9,6 C 8,9 C 6,7 C 98 % 1002,7 hPa 0,0 l/m 0 min 2 min 0 W/m 9,7 km/h (2 Bft) 95,74 %
01.04.2023 20:14 9,6 C 8,9 C 6,7 C 98 % 1002,7 hPa 0,0 l/m 0 min 2 min 0 W/m 12,9 km/h (3 Bft) 95,74 %
01.04.2023 20:16 9,6 C 8,9 C 6,7 C 98 % 1002,7 hPa 0,0 l/m 0 min 0 min 0 W/m 9,7 km/h (2 Bft) 95,74 %
01.04.2023 20:18 9,6 C 8,9 C 6,7 C 98 % 1002,8 hPa 0,0 l/m 0 min 2 min 0 W/m 12,9 km/h (3 Bft) 91,30 %
01.04.2023 20:20 9,6 C 8,9 C 6,7 C 98 % 1002,8 hPa 0,2 l/m 0 min 2 min 0 W/m 6,4 km/h (2 Bft) 97,87 %
01.04.2023 20:22 9,6 C 8,9 C 6,1 C 98 % 1002,8 hPa 0,0 l/m 0 min 2 min 0 W/m 12,9 km/h (3 Bft) 97,87 %
01.04.2023 20:24 9,6 C 8,9 C 6,1 C 98 % 1002,8 hPa 0,2 l/m 0 min 2 min 0 W/m 12,9 km/h (3 Bft) 95,74 %
01.04.2023 20:26 9,6 C 8,9 C 6,1 C 98 % 1002,8 hPa 0,0 l/m 0 min 2 min 0 W/m 6,4 km/h (2 Bft) 97,87 %
01.04.2023 20:28 9,6 C 8,9 C 6,1 C 98 % 1002,8 hPa 0,0 l/m 0 min 2 min 0 W/m 6,4 km/h (2 Bft) 97,87 %
01.04.2023 20:30 9,6 C 8,9 C 6,7 C 98 % 1002,9 hPa 0,2 l/m 0 min 2 min 0 W/m 12,9 km/h (3 Bft) 97,87 %
01.04.2023 20:32 9,6 C 8,9 C 6,1 C 98 % 1002,9 hPa 0,0 l/m 0 min 2 min 0 W/m 12,9 km/h (3 Bft) 95,65 %
01.04.2023 20:34 9,6 C 8,9 C 6,1 C 98 % 1002,9 hPa 0,0 l/m 0 min 2 min 0 W/m 16,1 km/h (3 Bft) 97,87 %
01.04.2023 20:36 9,5 C 8,9 C 6,1 C 98 % 1003,0 hPa 0,0 l/m 0 min 2 min 0 W/m 12,9 km/h (3 Bft) 95,74 %
01.04.2023 20:38 9,5 C 8,9 C 6,1 C 98 % 1003,0 hPa 0,2 l/m 0 min 2 min 0 W/m 12,9 km/h (3 Bft) 100,00 %
01.04.2023 20:40 9,4 C 8,9 C 6,1 C 98 % 1003,1 hPa 0,0 l/m 0 min 2 min 0 W/m 12,9 km/h (3 Bft) 100,00 %
01.04.2023 20:42 9,4 C 8,9 C 6,1 C 98 % 1003,0 hPa 0,0 l/m 0 min 2 min 0 W/m 16,1 km/h (3 Bft) 100,00 %
01.04.2023 20:44 9,4 C 8,9 C 6,1 C 98 % 1003,1 hPa 0,0 l/m 0 min 2 min 0 W/m 12,9 km/h (3 Bft) 97,87 %
01.04.2023 20:46 9,4 C 8,9 C 6,1 C 98 % 1003,1 hPa 0,0 l/m 0 min 2 min 0 W/m 9,7 km/h (2 Bft) 100,00 %
01.04.2023 20:48 9,4 C 8,9 C 6,1 C 98 % 1003,1 hPa 0,0 l/m 0 min 2 min 0 W/m 6,4 km/h (2 Bft) 97,87 %
01.04.2023 20:50 9,4 C 8,9 C 6,1 C 98 % 1003,1 hPa 0,0 l/m 0 min 0 min 0 W/m 6,4 km/h (2 Bft) 100,00 %
01.04.2023 20:52 9,4 C 8,9 C 6,1 C 98 % 1003,2 hPa 0,0 l/m 0 min 2 min 0 W/m 3,2 km/h (1 Bft) 97,87 %
01.04.2023 20:54 9,4 C 8,9 C 6,1 C 98 % 1003,2 hPa 0,0 l/m 0 min 0 min 0 W/m 6,4 km/h (2 Bft) 97,87 %
01.04.2023 20:56 9,4 C 8,3 C 6,1 C 98 % 1003,2 hPa 0,0 l/m 0 min 2 min 0 W/m 9,7 km/h (2 Bft) 97,87 %
01.04.2023 20:58 9,4 C 8,9 C 6,1 C 98 % 1003,3 hPa 0,0 l/m 0 min 2 min 0 W/m 6,4 km/h (2 Bft) 100,00 %
01.04.2023 21:00 9,4 C 8,9 C 6,1 C 98 % 1003,3 hPa 0,2 l/m 0 min 2 min 0 W/m 6,4 km/h (2 Bft) 100,00 %
01.04.2023 21:02 9,4 C 8,3 C 6,1 C 98 % 1003,3 hPa 0,0 l/m 0 min 0 min 0 W/m 9,7 km/h (2 Bft) 100,00 %
01.04.2023 21:04 9,4 C 8,3 C 6,1 C 98 % 1003,3 hPa 0,0 l/m 0 min 0 min 0 W/m 12,9 km/h (3 Bft) 100,00 %
01.04.2023 21:06 9,3 C 8,9 C 6,1 C 98 % 1003,4 hPa 0,0 l/m 0 min 0 min 0 W/m 12,9 km/h (3 Bft) 100,00 %
01.04.2023 21:08 9,3 C 8,3 C 6,1 C 98 % 1003,4 hPa 0,0 l/m 0 min 0 min 0 W/m 6,4 km/h (2 Bft) 100,00 %
01.04.2023 21:10 9,3 C 8,3 C 6,1 C 98 % 1003,5 hPa 0,0 l/m 0 min 0 min 0 W/m 12,9 km/h (3 Bft) 100,00 %
01.04.2023 21:12 9,3 C 8,3 C 6,1 C 98 % 1003,5 hPa 0,0 l/m 0 min 2 min 0 W/m 12,9 km/h (3 Bft) 97,87 %
01.04.2023 21:14 9,3 C 8,3 C 6,1 C 98 % 1003,5 hPa 0,0 l/m 0 min 2 min 0 W/m 12,9 km/h (3 Bft) 95,65 %
01.04.2023 21:16 9,3 C 8,3 C 6,1 C 98 % 1003,4 hPa 0,0 l/m 0 min 2 min 0 W/m 6,4 km/h (2 Bft) 97,87 %
01.04.2023 21:18 9,3 C 8,3 C 6,1 C 98 % 1003,5 hPa 0,0 l/m 0 min 2 min 0 W/m 12,9 km/h (3 Bft) 97,87 %
01.04.2023 21:20 9,3 C 8,3 C 6,1 C 98 % 1003,5 hPa 0,0 l/m 0 min 2 min 0 W/m 9,7 km/h (2 Bft) 97,87 %
01.04.2023 21:22 9,3 C 8,3 C 6,1 C 98 % 1003,5 hPa 0,0 l/m 0 min 2 min 0 W/m 9,7 km/h (2 Bft) 95,74 %
01.04.2023 21:24 9,3 C 8,3 C 6,1 C 98 % 1003,5 hPa 0,0 l/m 0 min 2 min 0 W/m 6,4 km/h (2 Bft) 95,74 %
01.04.2023 21:26 9,3 C 8,3 C 6,1 C 98 % 1003,5 hPa 0,0 l/m 0 min 0 min 0 W/m 9,7 km/h (2 Bft) 97,87 %
01.04.2023 21:28 9,3 C 8,3 C 6,1 C 98 % 1003,6 hPa 0,0 l/m 0 min 0 min 0 W/m 12,9 km/h (3 Bft) 97,83 %
01.04.2023 21:30 9,3 C 8,3 C 6,1 C 98 % 1003,7 hPa 0,0 l/m 0 min 0 min 0 W/m 6,4 km/h (2 Bft) 97,96 %
01.04.2023 21:32 9,3 C 8,3 C 6,1 C 98 % 1003,7 hPa 0,0 l/m 0 min 0 min 0 W/m 6,4 km/h (2 Bft) 97,87 %
01.04.2023 21:34 9,3 C 8,3 C 6,1 C 98 % 1003,7 hPa 0,2 l/m 0 min 2 min 0 W/m 22,5 km/h (4 Bft) 97,87 %
01.04.2023 21:36 9,3 C 8,3 C 6,1 C 98 % 1003,6 hPa 0,0 l/m 0 min 2 min 0 W/m 6,4 km/h (2 Bft) 97,87 %
01.04.2023 21:38 9,3 C 8,3 C 6,1 C 98 % 1003,7 hPa 0,0 l/m 0 min 2 min 0 W/m 6,4 km/h (2 Bft) 95,74 %
01.04.2023 21:40 9,3 C 8,3 C 6,1 C 98 % 1003,6 hPa 0,0 l/m 0 min 2 min 0 W/m 9,7 km/h (2 Bft) 95,65 %
01.04.2023 21:42 9,3 C 8,3 C 6,1 C 98 % 1003,7 hPa 0,0 l/m 0 min 2 min 0 W/m 6,4 km/h (2 Bft) 97,87 %
01.04.2023 21:44 9,3 C 8,3 C 6,1 C 98 % 1003,7 hPa 0,0 l/m 0 min 2 min 0 W/m 16,1 km/h (3 Bft) 97,87 %
01.04.2023 21:46 9,3 C 8,3 C 6,1 C 98 % 1003,7 hPa 0,0 l/m 0 min 0 min 0 W/m 6,4 km/h (2 Bft) 97,87 %
01.04.2023 21:48 9,3 C 8,3 C 6,1 C 98 % 1003,8 hPa 0,2 l/m 0 min 0 min 0 W/m 6,4 km/h (2 Bft) 97,87 %
01.04.2023 21:50 9,3 C 8,3 C 6,1 C 98 % 1003,8 hPa 0,0 l/m 0 min 0 min 0 W/m 9,7 km/h (2 Bft) 97,92 %
01.04.2023 21:52 9,3 C 8,3 C 6,1 C 98 % 1003,8 hPa 0,0 l/m 0 min 0 min 0 W/m 9,7 km/h (2 Bft) 100,00 %
01.04.2023 21:54 9,3 C 8,3 C 6,1 C 98 % 1003,8 hPa 0,0 l/m 0 min 0 min 0 W/m 6,4 km/h (2 Bft) 100,00 %
01.04.2023 21:56 9,3 C 8,3 C 6,1 C 98 % 1003,8 hPa 0,2 l/m 0 min 2 min 0 W/m 12,9 km/h (3 Bft) 100,00 %
01.04.2023 21:58 9,3 C 8,3 C 6,1 C 98 % 1003,9 hPa 0,0 l/m 0 min 2 min 0 W/m 6,4 km/h (2 Bft) 97,87 %
01.04.2023 22:00 9,3 C 8,3 C 6,1 C 98 % 1003,9 hPa 0,0 l/m 0 min 0 min 0 W/m 6,4 km/h (2 Bft) 97,87 %
01.04.2023 22:02 9,3 C 8,3 C 6,1 C 98 % 1004,0 hPa 0,0 l/m 0 min 0 min 0 W/m 12,9 km/h (3 Bft) 100,00 %
01.04.2023 22:04 9,3 C 8,3 C 6,1 C 98 % 1004,0 hPa 0,0 l/m 0 min 0 min 0 W/m 9,7 km/h (2 Bft) 97,92 %
01.04.2023 22:06 9,3 C 8,3 C 6,1 C 98 % 1004,1 hPa 0,0 l/m 0 min 0 min 0 W/m 9,7 km/h (2 Bft) 100,00 %
01.04.2023 22:08 9,3 C 8,3 C 6,1 C 98 % 1004,1 hPa 0,2 l/m 0 min 0 min 0 W/m 12,9 km/h (3 Bft) 97,83 %
01.04.2023 22:10 9,3 C 8,9 C 6,1 C 98 % 1004,1 hPa 0,0 l/m 0 min 0 min 0 W/m 12,9 km/h (3 Bft) 97,87 %
01.04.2023 22:12 9,3 C 8,9 C 6,7 C 98 % 1004,1 hPa 0,0 l/m 0 min 0 min 0 W/m 9,7 km/h (2 Bft) 97,87 %
01.04.2023 22:14 9,3 C 8,9 C 6,7 C 98 % 1004,2 hPa 0,0 l/m 0 min 0 min 0 W/m 9,7 km/h (2 Bft) 93,62 %
01.04.2023 22:16 9,4 C 8,9 C 6,7 C 98 % 1004,2 hPa 0,0 l/m 0 min 0 min 0 W/m 9,7 km/h (2 Bft) 95,74 %
01.04.2023 22:18 9,4 C 8,9 C 6,7 C 99 % 1004,3 hPa 0,0 l/m 0 min 0 min 0 W/m 9,7 km/h (2 Bft) 97,87 %
01.04.2023 22:20 9,4 C 8,9 C 6,7 C 99 % 1004,3 hPa 0,0 l/m 0 min 0 min 0 W/m 16,1 km/h (3 Bft) 93,48 %
01.04.2023 22:22 9,5 C 8,9 C 6,7 C 99 % 1004,4 hPa 0,0 l/m 0 min 0 min 0 W/m 9,7 km/h (2 Bft) 97,87 %
01.04.2023 22:24 9,5 C 8,9 C 6,7 C 99 % 1004,4 hPa 0,0 l/m 0 min 0 min 0 W/m 9,7 km/h (2 Bft) 97,87 %
01.04.2023 22:26 9,5 C 8,9 C 6,7 C 99 % 1004,5 hPa 0,0 l/m 0 min 0 min 0 W/m 22,5 km/h (4 Bft) 95,74 %
01.04.2023 22:28 9,5 C 8,9 C 6,7 C 99 % 1004,5 hPa 0,0 l/m 0 min 0 min 0 W/m 9,7 km/h (2 Bft) 95,74 %
01.04.2023 22:30 9,5 C 8,9 C 6,7 C 99 % 1004,5 hPa 0,0 l/m 0 min 0 min 0 W/m 12,9 km/h (3 Bft) 95,74 %
01.04.2023 22:32 9,5 C 8,9 C 6,7 C 99 % 1004,5 hPa 0,0 l/m 0 min 0 min 0 W/m 16,1 km/h (3 Bft) 97,92 %
01.04.2023 22:34 9,5 C 8,9 C 6,7 C 99 % 1004,6 hPa 0,0 l/m 0 min 0 min 0 W/m 16,1 km/h (3 Bft) 95,65 %
01.04.2023 22:36 9,5 C 8,9 C 6,1 C 99 % 1004,6 hPa 0,0 l/m 0 min 0 min 0 W/m 19,3 km/h (3 Bft) 93,62 %
01.04.2023 22:38 9,4 C 8,9 C 6,1 C 99 % 1004,7 hPa 0,0 l/m 0 min 0 min 0 W/m 19,3 km/h (3 Bft) 97,87 %
01.04.2023 22:40 9,4 C 8,9 C 6,1 C 99 % 1004,7 hPa 0,0 l/m 0 min 0 min 0 W/m 16,1 km/h (3 Bft) 93,62 %
01.04.2023 22:42 9,4 C 8,9 C 6,1 C 99 % 1004,8 hPa 0,2 l/m 0 min 0 min 0 W/m 16,1 km/h (3 Bft) 97,14 %
01.04.2023 22:44 9,4 C 8,9 C 6,1 C 98 % 1004,7 hPa 0,0 l/m 0 min 0 min 0 W/m 9,7 km/h (2 Bft) 93,62 %
01.04.2023 22:46 9,3 C 8,3 C 6,1 C 98 % 1004,8 hPa 0,0 l/m 0 min 0 min 0 W/m 19,3 km/h (3 Bft) 95,74 %
01.04.2023 22:48 9,3 C 8,3 C 6,1 C 98 % 1004,8 hPa 0,0 l/m 0 min 0 min 0 W/m 12,9 km/h (3 Bft) 95,74 %
01.04.2023 22:50 9,3 C 8,3 C 6,1 C 98 % 1004,9 hPa 0,0 l/m 0 min 0 min 0 W/m 6,4 km/h (2 Bft) 95,65 %
01.04.2023 22:52 9,3 C 8,3 C 6,1 C 98 % 1004,9 hPa 0,0 l/m 0 min 0 min 0 W/m 12,9 km/h (3 Bft) 95,74 %
01.04.2023 22:54 9,3 C 8,3 C 6,1 C 98 % 1005,0 hPa 0,0 l/m 0 min 0 min 0 W/m 16,1 km/h (3 Bft) 94,92 %
01.04.2023 22:56 9,3 C 8,3 C 6,1 C 98 % 1005,0 hPa 0,0 l/m 0 min 0 min 0 W/m 16,1 km/h (3 Bft) 97,14 %
01.04.2023 22:58 9,3 C 8,3 C 6,1 C 98 % 1005,1 hPa 0,0 l/m 0 min 0 min 0 W/m 12,9 km/h (3 Bft) 96,61 %
01.04.2023 23:00 9,3 C 8,3 C 6,1 C 98 % 1005,1 hPa 0,0 l/m 0 min 0 min 0 W/m 12,9 km/h (3 Bft) 94,29 %
01.04.2023 23:02 9,3 C 8,3 C 6,1 C 98 % 1005,1 hPa 0,0 l/m 0 min 0 min 0 W/m 12,9 km/h (3 Bft) 93,62 %
01.04.2023 23:04 9,2 C 8,3 C 6,1 C 98 % 1005,2 hPa 0,0 l/m 0 min 0 min 0 W/m 16,1 km/h (3 Bft) 97,83 %
01.04.2023 23:06 9,2 C 8,3 C 6,1 C 98 % 1005,3 hPa 0,0 l/m 0 min 0 min 0 W/m 16,1 km/h (3 Bft) 93,85 %
01.04.2023 23:08 9,2 C 8,3 C 6,1 C 99 % 1005,3 hPa 0,0 l/m 0 min 0 min 0 W/m 6,4 km/h (2 Bft) 97,14 %
01.04.2023 23:10 9,2 C 8,3 C 6,1 C 99 % 1005,3 hPa 0,0 l/m 0 min 0 min 0 W/m 25,7 km/h (4 Bft) 95,74 %
01.04.2023 23:12 9,1 C 8,3 C 6,1 C 99 % 1005,4 hPa 0,0 l/m 0 min 0 min 0 W/m 19,3 km/h (3 Bft) 93,62 %
01.04.2023 23:14 9,1 C 8,3 C 6,1 C 99 % 1005,4 hPa 0,0 l/m 0 min 0 min 0 W/m 9,7 km/h (2 Bft) 93,62 %
01.04.2023 23:16 9,1 C 8,3 C 6,1 C 99 % 1005,5 hPa 0,0 l/m 0 min 2 min 0 W/m 19,3 km/h (3 Bft) 95,92 %
01.04.2023 23:18 9,1 C 8,3 C 6,1 C 98 % 1005,5 hPa 0,0 l/m 0 min 2 min 0 W/m 12,9 km/h (3 Bft) 91,49 %
01.04.2023 23:20 9,1 C 8,3 C 6,1 C 98 % 1005,5 hPa 0,0 l/m 0 min 2 min 0 W/m 16,1 km/h (3 Bft) 93,62 %
01.04.2023 23:22 9,0 C 8,3 C 6,1 C 98 % 1005,6 hPa 0,0 l/m 0 min 0 min 0 W/m 12,9 km/h (3 Bft) 91,49 %
01.04.2023 23:24 9,0 C 8,3 C 6,1 C 98 % 1005,6 hPa 0,0 l/m 0 min 0 min 0 W/m 16,1 km/h (3 Bft) 87,23 %
01.04.2023 23:26 9,0 C 8,3 C 6,1 C 98 % 1005,7 hPa 0,0 l/m 0 min 0 min 0 W/m 22,5 km/h (4 Bft) 97,96 %
01.04.2023 23:28 8,9 C 8,3 C 6,1 C 98 % 1005,8 hPa 0,0 l/m 0 min 0 min 0 W/m 16,1 km/h (3 Bft) 93,48 %
01.04.2023 23:30 8,9 C 8,3 C 6,1 C 98 % 1005,9 hPa 0,0 l/m 0 min 0 min 0 W/m 19,3 km/h (3 Bft) 95,74 %
01.04.2023 23:32 8,9 C 8,3 C 6,1 C 99 % 1005,8 hPa 0,0 l/m 0 min 0 min 0 W/m 19,3 km/h (3 Bft) 93,75 %
01.04.2023 23:34 8,8 C 8,3 C 5,6 C 99 % 1005,9 hPa 0,0 l/m 0 min 0 min 0 W/m 22,5 km/h (4 Bft) 95,74 %
01.04.2023 23:36 8,8 C 8,3 C 5,6 C 99 % 1005,9 hPa 0,0 l/m 0 min 0 min 0 W/m 22,5 km/h (4 Bft) 93,62 %
01.04.2023 23:38 8,8 C 8,3 C 5,6 C 99 % 1006,0 hPa 0,0 l/m 0 min 0 min 0 W/m 22,5 km/h (4 Bft) 93,62 %
01.04.2023 23:40 8,7 C 7,8 C 5,6 C 99 % 1006,0 hPa 0,0 l/m 0 min 0 min 0 W/m 19,3 km/h (3 Bft) 97,83 %
01.04.2023 23:42 8,7 C 7,8 C 5,6 C 98 % 1006,0 hPa 0,0 l/m 0 min 0 min 0 W/m 29,0 km/h (5 Bft) 97,87 %
01.04.2023 23:44 8,6 C 7,8 C 5,6 C 98 % 1006,1 hPa 0,0 l/m 0 min 0 min 0 W/m 19,3 km/h (3 Bft) 95,74 %
01.04.2023 23:46 8,6 C 7,8 C 5,6 C 98 % 1006,1 hPa 0,0 l/m 0 min 0 min 0 W/m 25,7 km/h (4 Bft) 100,00 %
01.04.2023 23:48 8,6 C 7,8 C 5,6 C 98 % 1006,2 hPa 0,0 l/m 0 min 0 min 0 W/m 16,1 km/h (3 Bft) 97,87 %
01.04.2023 23:50 8,6 C 7,8 C 5,6 C 98 % 1006,2 hPa 0,0 l/m 0 min 0 min 0 W/m 16,1 km/h (3 Bft) 97,87 %
01.04.2023 23:52 8,5 C 7,8 C 5,6 C 98 % 1006,2 hPa 0,0 l/m 0 min 0 min 0 W/m 16,1 km/h (3 Bft) 97,87 %
01.04.2023 23:54 8,5 C 7,8 C 5,6 C 98 % 1006,3 hPa 0,0 l/m 0 min 0 min 0 W/m 12,9 km/h (3 Bft) 100,00 %
01.04.2023 23:56 8,5 C 7,8 C 5,6 C 98 % 1006,3 hPa 0,0 l/m 0 min 0 min 0 W/m 12,9 km/h (3 Bft) 100,00 %
01.04.2023 23:58 8,5 C 7,8 C 5,6 C 98 % 1006,4 hPa 0,0 l/m 0 min 0 min 0 W/m 16,1 km/h (3 Bft) 97,87 %
_ Min-Zeit 23:52 23:40 00:14 00:00 03:22 - - - - 20:52 00:02
Minimum _ 8,5 C 7,8 C 5,0 C 93 % 993,3 hPa - - - - 3,2 km/h (1 Bft) 11,11 %
_ Max-Zeit 16:20 16:02 16:04 22:18 23:58 00:12 00:00 02:14 11:04 04:12 00:07
Maximum _ 11,3 C 11,7 C 7,8 C 99 % 1006,4 hPa 0,2 l/m 0 min 4 min 207 W/m 54,7 km/h
W-SW (7 Bft)
605,36 %
Durchschnitt _ 9,7 C 9,0 C 6,2 C 97 % 997,8 hPa #8,8 l/m #0 min. #16:40 h 86 W/m 20,1 km/h (4 Bft) 97,57 %
© 2023 W. Hausmann